     2              OBSERVATION DATA    GPS                 RINEX VERSION / TYPE
ASRINEXO V2.7.2 UX SOPAC 02-MAR- 0 15:33                    PGM / RUN BY / DATE
                                                            COMMENT
Original Marker Name: 0109                                  COMMENT
Campaign Name: HPGN 1991                                    COMMENT
4-Character Station Name: 0109                              COMMENT
6-Character Antenna Code: ASHL12                            COMMENT
Vertical Measurement Point: BAS                             COMMENT
Vertical Offset to Rinex Ref. Point: 0.0000                 COMMENT
Radial Measurement Point: RRP                               COMMENT
Radial Offset to Rinex Ref. Point: 0.0000                   COMMENT
Antenna Height from Field Measurement: 1.5950 m             COMMENT
Additional Antenna Identification Info.:                    COMMENT
Original Ashtech L1/L2                                      COMMENT
Original XYZ: 6378137.0000 0.0000 0.0000                    COMMENT
New XYZ position is based on association with SCEC monument COMMENT
E1N5Z1M6+0011. Position of that monument is believed to be  COMMENT
valid to within 1 m horizontally; vertical accuracy         COMMENT
should be no worse than 3-times this value.                 COMMENT
                                                            COMMENT
Revised Rinex header created by UCSD GPS archive for        COMMENT
GSAC on 17-Mar-2000 (2000:077) 22:32:44 GMT                 COMMENT
For assistance contact dagnew@ucsd.edu or hjohnson@ucsd.edu COMMENT
                                                            COMMENT
HPGN CA 01 09                                               MARKER NAME
JDD CALIF DEPT TRANSPORTATION                               OBSERVER / AGENCY
579 ASHTECH L-XII 6A                                        REC # / TYPE / VERS
619 ASHTECH GEODETIC L                                      ANT # / TYPE
 -2704844.3325 -3992428.4286  4160334.5591                  APPROX POSITION XYZ
        1.5950        0.0000        0.0000                  ANTENNA: DELTA H/E/N
     1     2     0                                          WAVELENGTH FACT L1/2
     3    C1    L1    L2                                    # / TYPES OF OBSERV
     0                                                      INTERVAL
  1991     7    27     5     3   45.000000                  TIME OF FIRST OBS
  1991     7    27     6    32    0.000000                  TIME OF LAST OBS
                                                            END OF HEADER
 91  7 27  5  3 45.0000000  0  2 21 23
  30058125.105           0.583 4         0.270 3
  31634089.972           0.100 3         0.325 2
 91  7 27  5  4  0.0000000  0  2 21 23
  30058338.242        1103.941 4       860.049 3
  31641523.939       39072.317 3     30446.191 2
 91  7 27  5  4 15.0010000  0  2 21 23
  24662297.055          58.777 4        45.621 3
  26252705.014        -867.364 4      -675.668 2
 91  7 27  5  4 30.0010000  0  3 12 21 23
  28166360.946           0.677 2         0.188 1
  24662531.795        1299.989 4      1012.810 3
  26260153.674       38261.538 3     29814.382 2
 91  7 27  5  4 45.0010000  0  3 12 21 23
  33560412.095        2887.945 2      2249.988 1
  30059045.450         223.969 4       174.129 3
  31663862.054         392.910 4       306.323 2
 91  7 27  5  5  0.0010000  0  3 12 21 23
  33558233.226       -8571.650 2     -6679.538 1
  30059308.390        1598.643 4      1245.320 3
  31671315.809       39573.852 4     30836.916 2
 91  7 27  5  5 15.0010000  0  3 12 21 23
  23962710.357        3113.988 2      2426.250 1
  20466227.016         369.439 4       287.382 3
  22085439.072         585.613 4       456.336 2
 91  7 27  5  5 30.0010000  0  3 12 21 23
  23960592.913       -8065.366 2     -6284.932 1
  20466521.436        1895.373 4      1476.426 3
  22092906.893       39836.033 4     31041.079 2
 91  7 27  5  5 45.0010000  0  3 12 21 23
  33851645.480        4151.521 2      3234.684 1
  30359971.139         409.056 4       318.173 3
  31993517.153       -2050.650 4     -1597.995 2
 91  7 27  5  6  0.0010000  0  3 12 21 23
  33849573.022       -6744.243 2     -5255.525 1
  30360292.817        2089.041 4      1627.259 3
  32000997.573       37271.746 4     29042.830 2
 91  7 27  5  6 15.0010000  0  4 12 21 23 11
  23954370.445        3664.906 2      2855.747 1
  20467478.057         668.115 4       519.815 3
  22115354.155         724.566 4       564.338 2
  31618985.224           0.071 4         0.318 2
 91  7 27  5  6 30.0010000  0  4 12 21 23 11
  23952350.128       -6943.695 2     -5410.691 1
  20467824.025        2504.134 4      1950.492 3
  22122846.266       40120.339 3     31262.340 2
  21423595.659      -12876.285 4    -10033.195 2
 91  7 27  5  6 45.0010000  0  4 12 21 23 11
  24250150.169      -17408.062 2    -13564.715 1
  20767979.811        4417.671 4      3441.573 3
  22430145.543       79549.863 3     61986.630 2
  21720962.796      -25594.290 4    -19943.322 2
 91  7 27  5  7  0.0010000  0  4 12 21 23 11
  24248178.434      -27730.037 2    -21607.796 1
  20768359.667        6408.233 4      4992.680 3
  22437659.223      119017.515 3     92740.647 2
  21718572.535      -38156.048 4    -29731.691 2
 91  7 27  5  7 15.0010000  0  4 12 21 23 11
  24246254.967      -37909.553 2    -29539.876 1
  20768755.682        8474.676 4      6602.893 3
  22445174.717      158519.656 3    123521.532 2
  21716210.473      -50561.451 4    -39398.231 2
 91  7 27  5  7 30.0010000  0  4 12 21 23 11
  24244337.188      -47945.920 2    -37360.387 1
  20769163.110       10617.522 4      8272.656 3
  22452693.213      198056.589 3    154329.532 2
  21713882.300      -62809.789 4    -48942.390 2
 91  7 27  5  7 45.0010000  0  4 12 21 23 11
  24242448.202      -57839.606 2    -45069.748 1
  20769583.730       12835.959 4     10001.321 3
  22460228.497      237627.435 3    185163.942 2
  21711581.977      -74901.544 4    -58364.526 2
 91  7 27  5  8  0.0010000  0  4 12 21 23 11
  24240595.791      -67590.964 2    -52668.169 1
  20770018.729       15129.410 4     11788.434 3
  22467762.907      277231.532 3    216024.281 2
  21709310.448      -86837.010 4    -67664.877 2
 91  7 27  5  8 15.0010000  0  4 12 21 23 11
  24238773.954      -77199.913 2    -60155.643 1
  20770467.514       17497.677 4     13633.855 3
  22475306.253      316868.711 3    246910.383 2
  21707068.897      -98616.163 4    -76843.423 2
 91  7 27  5  8 30.0010000  0  4 12 21 23 11
  24236973.999      -86665.123 2    -67531.093 1
  20770937.274       19941.939 4     15538.486 3
  22482857.136      356539.850 3    277822.952 2
  21704853.732     -110237.586 4    -85899.069 2
 91  7 27  5  8 45.0010000  0  4 12 21 23 11
  24235192.925      -96022.256 2    -74822.368 1
  20771409.756       22426.226 4     17474.307 3
  22490406.519      396208.986 4    308733.937 2
  21702665.544     -121736.910 4    -94859.572 2
 91  7 27  5  9  0.0010000  0  4 12 21 23 11
  24233435.234     -105245.160 2    -82009.022 1
  20771896.023       24976.265 4     19461.361 3
  22497953.494      435901.950 3    339663.519 2
  21700504.963     -133088.072 4   -103704.626 2
 91  7 27  5  9 15.0010000  0  4 12 21 23 11
  24231703.335     -114323.925 2    -89083.378 1
  20772394.855       27601.705 4     21507.169 3
  22505518.163      475628.247 4    370619.062 2
  21698376.734     -144281.261 4   -112426.573 2
 91  7 27  5  9 30.0010000  0  4 12 21 23 11
  24230008.919     -123258.010 2    -96044.956 1
  20772908.101       30302.956 4     23612.050 3
  22513083.112      515388.183 4    401600.833 2
  21696276.391     -155315.841 4   -121024.932 2
 91  7 27  5  9 45.0010000  0  4 12 21 23 11
  24228337.572     -132049.581 2   -102895.530 1
  20773435.761       33077.419 4     25773.978 3
  22520656.158      555179.056 4    432606.688 2
  21694207.214     -166194.046 4   -129501.450 2
 91  7 27  5 10  0.0010000  0  4 12 21 23 11
  24226687.828     -140697.694 2   -109634.264 1
  20773976.578       35925.827 4     27993.521 3
  22528229.517      595001.503 3    463637.169 2
  21692168.331     -176914.876 4   -137855.337 2
 91  7 27  5 10 15.0010000  0  4 12 21 23 11
  24225068.343     -149201.942 2   -116260.964 1
  20774532.682       38848.408 4     30270.872 3
  22535814.883      634855.623 3    494692.319 2
  21690160.614     -187477.971 4   -146086.305 2
 91  7 27  5 10 30.0010000  0  4 12 21 23 11
  24223478.524     -157563.606 2   -122776.513 1
  20775103.792       41843.642 4     32604.827 3
  22543408.938      674739.979 4    525771.026 2
  21688175.093     -197884.540 4   -154195.308 2
 91  7 27  5 10 45.0010000  0  4 12 21 23 11
  24221910.308     -165782.358 2   -129180.718 1
  20775688.689       44911.433 4     34995.323 3
  22551002.051      714654.408 4    556873.173 2
  21686228.521     -208134.438 4   -162182.221 2
 91  7 27  5 11  0.0010000  0  4 12 21 23 11
  24220384.391     -173859.011 2   -135474.210 1
  20776285.591       48050.783 4     37441.580 3
  22558601.516      754597.732 4    587997.828 2
  21684304.774     -218228.221 4   -170047.499 2
 91  7 27  5 11 15.0010000  0  4 12 21 23 11
  24218875.226     -181792.407 2   -141656.051 1
  20776895.650       51262.449 4     39944.192 3
  22566207.822      794570.943 4    619145.785 2
  21682412.787     -228164.910 4   -177790.371 2
 91  7 27  5 11 30.0010000  0  4 12 21 23 11
  24217389.445     -189582.437 2   -147726.185 1
  20777521.625       54546.447 4     42503.157 3
  22573821.352      834573.651 4    650316.708 2
  21680554.059     -237944.369 4   -185410.710 2
 91  7 27  5 11 45.0010000  0  4 12 21 23 11
  24215924.673     -197228.787 2   -153684.398 1
  20778158.976       57902.844 4     45118.540 3
  22581441.199      874605.925 4    681510.690 2
  21678724.718     -247566.274 4   -192908.283 2
 91  7 27  5 12  0.0010000  0  4 12 21 23 11
  24214507.541     -204730.722 2   -159530.031 1
  20778813.743       61331.949 4     47790.573 3
  22589062.826      914668.058 3    712727.930 2
  21676916.666     -257029.909 4   -200282.528 2
 91  7 27  5 12 15.0010000  0  4 12 21 23 11
  24213107.510     -212089.158 2   -165263.866 1
  20779476.258       64832.650 4     50518.406 3
  22596690.735      954758.985 4    743967.617 2
  21675151.507     -266336.230 4   -207534.200 2
 91  7 27  5 12 30.0010000  0  4 12 21 23 11
  24211727.861     -219301.421 2   -170883.826 1
  20780157.689       68407.333 4     53303.881 3
  22604325.868      994880.942 3    775231.470 2
  21673408.823     -275482.636 4   -214661.255 2
 91  7 27  5 12 45.0010000  0  4 12 21 23 11
  24210391.105     -226329.345 2   -176360.090 1
  20780858.595       72094.062 4     56176.656 3
  22611977.754     1035071.922 4    806549.116 2
  21671705.996     -284430.819 4   -221633.853 2
 91  7 27  5 13  0.0010000  0  4 12 21 23 11
  24209084.293     -233213.530 2   -181724.370 1
  20781577.230       75851.923 4     59104.863 3
  22619628.453     1075290.794 3    837888.485 2
  21670035.243     -293221.422 4   -228483.657 2
 91  7 27  5 13 15.0010000  0  4 12 21 23 11
  24207802.086     -239960.359 3   -186981.666 1
  20782303.927       79674.261 4     62083.320 3
  22627288.749     1115530.845 3    869244.377 2
  21668390.280     -301860.974 4   -235215.766 2
 91  7 27  5 13 30.0010000  0  4 12 21 23 11
  24206544.169     -246562.440 2   -192126.114 1
  20783043.502       83568.147 4     65117.532 3
  22634948.767     1155799.260 3    900622.369 2
  21666776.798     -310341.970 4   -241824.300 2
 91  7 27  5 13 45.0010000  0  4 12 21 23 11
  24205322.794     -253018.027 2   -197156.416 1
  20783800.771       87535.199 4     68208.741 3
  22642616.846     1196097.613 3    932023.669 2
  21665196.890     -318662.601 4   -248307.922 2
 91  7 27  5 14  0.0010000  0  4 12 21 23 11
  24204109.829     -259326.077 2   -202071.777 1
  20784568.232       91576.262 4     71357.629 3
  22650293.022     1236426.558 3    963448.831 2
  21663635.864     -326821.778 4   -254665.711 2
 91  7 27  5 14 15.0010000  0  4 12 21 23 11
  24202940.664     -265488.330 2   -206873.542 1
  20785349.792       95689.334 4     74562.633 3
  22657971.921     1276783.994 3    994896.187 2
  21662120.417     -334821.341 4   -260899.123 2
 91  7 27  5 14 30.0010000  0  4 12 21 23 11
  24201797.850     -271511.404 2   -211566.830 1
  20786145.767       99867.486 4     77818.351 3
  22665659.196     1317162.893 3   1026360.264 2
  21660624.166     -342667.858 4   -267013.284 2
 91  7 27  5 14 45.0010000  0  4 12 21 23 11
  24200672.136     -277395.062 2   -216151.524 1
  20786950.396      104110.683 4     81124.746 3
  22673346.470     1357563.381 3   1057841.152 2
  21659164.490     -350361.125 4   -273008.026 2
 91  7 27  5 15  0.0010000  0  4 12 21 23 11
  24199583.592     -283131.493 2   -220621.413 1
  20787774.814      108426.470 4     84487.709 3
  22681039.154     1397992.830 3   1089344.626 2
  21657727.883     -357893.505 4   -278877.405 2
 91  7 27  5 15 15.0010000  0  4 12 21 23 11
  24198525.306     -288717.185 2   -224973.847 1
  20788610.331      112818.162 4     87909.821 3
  22688736.620     1438454.475 3   1120873.190 2
  21656325.130     -365261.433 4   -284618.639 2
 91  7 27  5 15 30.0010000  0  4 12 21 23 11
  24197495.813     -294155.828 2   -229211.759 1
  20789459.354      117281.972 4     91388.120 3
  22696443.369     1478944.384 3   1152423.757 2
  21654953.892     -372468.512 4   -290234.524 2
 91  7 27  5 15 45.0010000  0  4 12 21 23 11
  24196481.327     -299449.339 2   -233336.537 1
  20790324.849      121815.710 5     94920.907 3
  22704149.560     1519460.243 3   1183994.551 2
  21653613.227     -379516.648 4   -295726.568 2
 91  7 27  5 16  0.0010000  0  4 12 21 23 11
  24195501.008     -304595.001 2   -237346.202 1
  20791196.941      126421.829 5     98510.103 3
  22711864.999     1560004.548 3   1215587.515 2
  21652301.912     -386403.086 4   -301092.617 2
 91  7 27  5 16 15.0010000  0  4 12 21 23 11
  24194552.449     -309597.738 3   -241244.339 1
  20792085.856      131095.087 5    102151.614 3
  22719584.347     1600572.110 3   1247198.613 2
  21651021.799     -393132.809 4   -306336.549 2
 91  7 27  5 16 30.0010000  0  4 12 21 23 11
  24193633.591     -314453.602 3   -245028.097 1
  20792993.895      135839.303 4    105848.415 3
  22727312.699     1641166.599 3   1278830.676 2
  21649770.758     -399701.889 4   -311455.301 2
 91  7 27  5 16 45.0010000  0  4 12 21 23 11
  24192728.239     -319164.946 3   -248699.290 1
  20793908.287      140651.980 5    109598.565 3
  22735038.644     1681785.292 3   1310481.611 2
  21648556.607     -406112.677 4   -316450.717 2
 91  7 27  5 17  0.0010000  0  4 12 21 23 11
  24191854.018     -323731.715 2   -252257.808
  20794833.427      145532.888 4    113401.884 3
  22742775.093     1722428.140 3   1342151.375 2
  21647361.337     -412365.127 4   -321322.745 2
 91  7 27  5 17 15.0010000  0  4 12 21 23 11
  24191020.316     -328151.108 2   -255701.485 1
  20795775.076      150484.512 4    117260.299 3
  22750510.949     1763097.379 3   1373841.670 2
  21646204.143     -418456.489 4   -326069.264 2
 91  7 27  5 17 30.0010000  0  4 12 21 23 11
  24190206.961     -332423.970 3   -259030.948 1
  20796734.419      155505.831 4    121173.024 3
  22758258.497     1803792.061 3   1405551.815 2
  21645074.835     -424387.515 4   -330690.834 2
 91  7 27  5 17 45.0010000  0  4 12 21 23 11
  24189418.211     -336549.086 2   -262245.339 1
  20797700.358      160597.835 4    125140.833 3
  22766009.918     1844512.979 3   1437282.408 2
  21643974.599     -430157.114 4   -335186.620 2
 91  7 27  5 18  0.0010000  0  4 12 21 23 11
  24188663.629     -340527.183 2   -265345.081 1
  20798686.086      165759.623 4    129163.024 3
  22773758.653     1885259.218 3   1469032.715 2
  21642907.343     -435765.995 4   -339557.172 2
 91  7 27  5 18 15.0010000  0  4 12 21 23 11
  24187930.057     -344358.938 2   -268330.896
  20799680.784      170990.300 4    133238.887 3
  22781519.079     1926029.984 3   1500802.127 2
  21641871.533     -441214.734 4   -343802.941 2
 91  7 27  5 18 30.0010000  0  4 12 21 23 11
  24187233.619     -348043.394 2   -271201.795 1
  20800688.987      176290.623 4    137369.017 3
  22789278.911     1966825.839 3   1532591.115 2
  21640867.832     -446502.434 4   -347923.219 2
 91  7 27  5 18 45.0010000  0  5 12 21 23 11 15
  24186561.506     -351581.635 2   -273958.878 1
  20801712.163      181659.275 4    141552.406 3
  22797048.935     2007645.433 4   1564398.589 2
  21639890.829     -451630.189 4   -351918.869 2
  25112237.867           0.255 2         0.499 1
 91  7 27  5 19  0.0010000  0  5 12 21 23 11 15
  24185921.432     -354971.101 2   -276600.025 1
  20802742.250      187098.765 4    145790.977 3
  22804823.461     2048491.112 4   1596226.375 2
  21638946.772     -456595.400 4   -355787.865 2
  25103542.982      -45729.848 2    -35633.314 1
 91  7 27  5 19 15.0010000  0  5 12 21 23 11 15
  24185295.458     -358210.966 2   -279124.584 1
  20803794.533      192609.562 4    150085.113 3
  22812602.174     2089363.486 4   1628074.984 2
  21638028.507     -461397.325 4   -359529.613 2
  25094833.404      -91463.157 2    -71269.578 1
 91  7 27  5 19 30.0010000  0  5 12 21 23 11 15
  24184707.874     -361301.364 2   -281532.699 1
  20804855.192      198191.387 4    154434.609 3
  22820382.668     2130262.116 4   1659944.056 1
  21637150.098     -466036.013 4   -363144.171 2
  25086128.328     -137199.569 2   -106908.242 1
 91  7 27  5 19 45.0010000  0  5 12 21 23 11 15
  24184155.051     -364244.606 2   -283826.128 1
  20805931.452      203841.766 4    158837.514 3
  22828170.072     2171184.530 4   1691831.630 2
  21636297.794     -470513.781 4   -366633.337 2
  25077434.943     -182941.457 2   -142551.168 1
 91  7 27  5 20  0.0010000  0  5 12 21 23 11 15
  24183621.424     -367039.264 2   -286003.707 1
  20807018.810      209561.737 4    163294.654 3
  22835961.106     2212131.621 4   1723738.438 2
  21635474.877     -474829.409 4   -369996.162 2
  25068710.986     -228687.724 2   -178197.491 1
 91  7 27  5 20 15.0010000  0  5 12 21 23 11 15
  24183119.869     -369686.889 2   -288066.795 1
  20808123.234      215349.398 4    167804.532 3
  22843763.203     2253101.565 3   1755663.079 2
  21634685.534     -478984.381 4   -373233.801 2
  25060002.909     -274439.703 2   -213848.368 1
 91  7 27  5 20 30.0010000  0  5 12 21 23 11 15
  24182641.105     -372185.019 2   -290013.390 1
  20809234.883      221207.201 4    172369.068 3
  22851560.483     2294096.779 3   1787607.405 2
  21633925.856     -482976.143 4   -376344.257 2
  25051309.524     -320194.960 2   -249501.706 1
 91  7 27  5 20 45.0010000  0  5 12 21 23 11 15
  24182192.321     -374534.800 2   -291844.368 1
  20810363.598      227133.871 4    176987.254 3
  22859369.177     2335115.747 3   1819570.226 1
  21633197.065     -486805.845 4   -379328.432 2
  25042607.764     -365954.447 2   -285158.347 1
 91  7 27  5 21  0.0010000  0  5 12 21 23 11 15
  24181775.295     -376736.345 2   -293559.841 1
  20811505.505      233129.157 4    181658.913 3
  22867176.683     2376158.227 3   1851551.379 2
  21632502.442     -490473.466 4   -382186.315 2
  25033895.498     -411718.035 2   -320818.199 1
 91  7 27  5 21 15.0010000  0  5 12 21 23 11 15
  24181377.465     -378788.358 2   -295158.796 1
  20812655.788      239194.062 4    186384.837 3
  22874992.287     2417225.164 3   1883551.587 1
  21631832.702     -493977.777 4   -384916.945 2
  25025178.416     -457484.610 2   -356480.369 1
 91  7 27  5 21 30.0010000  0  5 12 21 23 11 15
  24181018.933     -380688.819 2   -296639.704 1
  20813822.580      245330.398 4    191166.412 3
  22882810.857     2458318.280 3   1915572.172 1
  21631199.225     -497316.921 4   -387518.870 2
  25016476.063     -503252.162 2   -392143.298 1
 91  7 27  5 21 45.0010000  0  5 12 21 23 11 15
  24180684.657     -382440.295 2   -298004.457 1
  20815007.066      251535.411 4    196001.496 3
  22890636.651     2499434.910 3   1947611.138 1
  21630593.667     -500493.439 4   -389994.074 2
  25007761.982     -549023.164 2   -427808.895 1
 91  7 27  5 22  0.0010000  0  5 12 21 23 11 15
  24180380.988     -384042.758 2   -299253.082 1
  20816200.242      257808.877 4    200889.924 3
  22898463.318     2540574.670 3   1979668.067 1
  21630018.333     -503507.296 4   -392342.523 2
  24999053.626     -594797.811 2   -463477.395 1
 91  7 27  5 22 15.0010000  0  5 12 21 23 11 15
  24180103.076     -385495.248 2   -300384.916 1
  20817405.424      264151.695 4    205832.396 3
  22906295.116     2581738.366 3   2011743.682 1
  21629479.610     -506357.623 4   -394563.559 2
  24990335.636     -640574.688 2   -499147.570 1
 91  7 27  5 22 30.0010000  0  5 12 21 23 11 15
  24179859.645     -386797.774 2   -301399.839 1
  20818628.579      270563.689 4    210828.766 3
  22914133.160     2622925.890 3   2043837.829 2
  21628968.493     -509044.320 4   -396657.090 2
  24981633.562     -686353.992 2   -534819.707 1
 91  7 27  5 22 45.0010000  0  5 12 21 23 11 15
  24179640.785     -387948.699 2   -302296.634 1
  20819860.704      277046.345 4    215880.186 3
  22921972.740     2664138.564 3   2075951.604 1
  21628484.320     -511565.682 4   -398621.784 2
  24972918.295     -732133.962 2   -570492.333 1
 91  7 27  5 23  0.0010000  0  5 12 21 23 11 15
  24179451.031     -388949.339 2   -303076.389 1
  20821109.058      283598.153 4    220985.524 3
  22929822.197     2705374.887 3   2108083.803 1
  21628034.313     -513923.161 4   -400458.765 2
  24964203.342     -777915.703 2   -606166.333 1
 91  7 27  5 23 15.0010000  0  5 12 21 23 11 15
  24179278.344     -389842.893 2   -303772.625 1
  20822357.970      290175.717 4    226110.910 3
  22937669.874     2746591.347 3   2140200.518 1
  21627609.819     -516159.853 4   -402201.641 2
  24955500.953     -823742.334 2   -641875.328 1
 91  7 27  5 23 30.0010000  0  5 12 21 23 11 15
  24179138.637     -390585.660 2   -304351.449 1
  20823622.203      296822.420 4    231290.169 3
  22945514.236     2787831.433 3   2172335.651 1
  21627220.400     -518232.133 4   -403816.405 2
  24946769.528     -869570.335 2   -677585.326 1
 91  7 27  5 23 45.0010000  0  5 12 21 23 11 15
  24179023.501     -391177.280 2   -304812.415 1
  20824905.004      303538.566 4    236523.532 3
  22953367.916     2829095.175 3   2204489.220 1
  21626855.237     -520139.634 4   -405302.758 2
  24938040.440     -915399.211 2   -713296.111 1
 91  7 27  5 24  0.0010000  0  5 12 21 23 11 15
  24178931.782     -391617.466 2   -305155.445 1
  20826193.842      310324.235 4    241811.082 3
  22961225.469     2870382.697 3   2236661.314 1
  21626520.682     -521882.224 4   -406660.607 2
  24929324.301     -961228.515 2   -749007.157 1
 91  7 27  5 24 15.0010000  0  5 12 21 23 11 15
  24178886.516     -391906.894 2   -305380.975 1
  20827499.118      317178.602 5    247152.156 3
  22969084.524     2911693.179 3   2268851.292 2
  21626221.480     -523460.487 4   -407890.419 2
  24920602.123    -1007058.844 2   -784719.100 1
 91  7 27  5 24 30.0010000  0  5 12 21 23 11 15
  24178864.320     -392044.284 2   -305488.008 1
  20828816.993      324102.831 5    252547.657 3
  22976951.990     2953027.701 3   2301059.994 2
  21625953.480     -524872.918 4   -408990.993 2
  24911881.761    -1052888.838 2   -820430.642 1
 91  7 27  5 24 45.0010000  0  5 12 21 23 11 15
  24178864.913     -392027.814 2   -305475.154 1
  20830148.689      331098.649 5    257998.951 3
  22984819.734     2994387.794 3   2333288.637 2
  21625716.017     -526117.774 4   -409960.997 2
  24903163.493    -1098716.538 2   -856140.470 1
 91  7 27  5 25  0.0010000  0  5 12 21 23 11 15
  24178897.894     -391860.484 2   -305344.709 1
  20831492.670      338162.908 5    263503.583 3
  22992695.297     3035770.501 3   2365534.887 1
  21625512.164     -527198.095 4   -410802.804 2
  24894444.631    -1144544.853 2   -891850.786 1
 91  7 27  5 25 15.0010000  0  5 12 21 23 11 15
  24178959.354     -391503.341 2   -305066.411 1
  20832852.531      345334.363 5    269091.734 3
  23000583.144     3077214.201 3   2397828.685 2
  21625347.887     -528075.004 4   -411486.099 2
  24885736.274    -1190334.877 2   -927531.240 1
 91  7 27  5 25 30.0010000  0  5 12 21 23 11 15
  24179053.794     -390988.238 2   -304665.004 1
  20834233.366      352580.896 5    274738.389 3
  23008477.553     3118686.843 3   2430145.018 2
  21625209.682     -528780.442 4   -412035.785 2
  24877000.625    -1236118.341 2   -963206.643 1
 91  7 27  5 25 45.0010000  0  5 12 21 23 11 15
  24179190.185     -390320.345 2   -304144.571 1
  20835624.986      359897.212 4    280439.437 3
  23016375.591     3160183.082 3   2462479.740 2
  21625113.147     -529319.469 4   -412455.787 2
  24868293.455    -1281900.335 2   -998880.787 1
 91  7 27  5 26  0.0010000  0  5 12 21 23 11 15
  24179346.400     -389499.540 2   -303504.987 1
  20837030.427      367283.329 4    286194.856 3
  23024272.443     3201702.930 3   2494832.873 2
  21625035.494     -529691.936 4   -412746.009 2
  24859584.156    -1327680.724 2  -1034553.779 1
 91  7 27  5 26 15.0010000  0  5 12 21 23 11 15
  24179538.561     -388525.611 2   -302746.048 1
  20838451.154      374739.222 4    292004.654 3
  23032177.357     3243246.474 3   2527204.449 2
  21624998.639     -529897.660 4   -412906.309 2
  24850876.393    -1373459.057 2  -1070225.153 1
 91  7 27  5 26 30.0010000  0  5 12 21 23 11 15
  24179749.325     -387399.261 2   -301868.360 1
  20839883.538      382264.134 4    297868.216 3
  23040087.680     3284812.639 3   2559593.676 2
  21624992.322     -529937.337 4   -412937.204 2
  24842170.410    -1419235.848 2  -1105895.250 1
 91  7 27  5 26 45.0010000  0  5 12 21 23 11 15
  24179987.346     -386120.320 2   -300871.741 1
  20841327.334      389857.873 4    303785.424 3
  23048003.099     3326401.543 3   2592000.616 2
  21625015.112     -529810.953 4   -412838.705 2
  24833455.457    -1465011.105 2  -1141564.229 1
 91  7 27  5 27  0.0010000  0  5 12 21 23 11 15
  24180262.850     -384687.340 2   -299755.108 1
  20842785.823      397521.867 4    309757.370 3
  23055921.205     3368014.277 3   2624426.119 2
  21625069.661     -529516.998 4   -412609.633 2
  24824756.977    -1510783.306 2  -1177230.779 1
 91  7 27  5 27 15.0010000  0  5 12 21 23 11 15
  24180565.332     -383100.145 2   -298518.370 1
  20844260.506      405256.083 4    315784.037 3
  23063842.627     3409650.928 3   2656870.275 2
  21625153.317     -529055.272 4   -412249.833 2
  24816038.115    -1556551.971 2  -1212894.615 1
 91  7 27  5 27 30.0010000  0  5 12 21 23 11 15
  24180892.419     -381358.618 2   -297161.313 1
  20845743.007      413060.594 4    321865.478 3
  23071774.239     3451311.418 3   2689332.999 2
  21625278.331     -528425.516 4   -411759.101 2
  24807323.756    -1602316.834 2  -1248555.503 1
 91  7 27  5 27 45.0020000  0  5 12 21 23 11 15
  24181253.973     -379463.632 2   -295684.692 1
  20847243.467      420934.671 4    328001.127 3
  23079701.963     3492997.135 3   2721815.378 2
  21625429.715     -527628.886 4   -411138.353 2
  24798618.665    -1648081.999 2  -1284216.569 1
 91  7 27  5 28  0.0020000  0  5 12 21 23 11 15
  24181642.799     -377414.758 2   -294088.141 1
  20848756.505      428877.869 5    334190.634 3
  23087641.045     3534703.296 3   2754313.675 2
  21625612.000     -526664.779 4   -410387.077 2
  24789909.995    -1693840.376 2  -1319872.379 1
 91  7 27  5 28 15.0020000  0  5 12 21 23 11 15
  24182061.918     -375212.498 2   -292372.095 1
  20850277.955      436889.953 4    340433.821 3
  23095579.253     3576431.720 3   2786829.318 1
  21625829.045     -525533.831 4   -409505.797 2
  24781202.545    -1739595.634 2  -1355525.750 1
 91  7 27  5 28 30.0020000  0  5 12 21 23 11 15
  24182508.888     -372855.853 3   -290535.750 1
  20851815.598      444971.734 4    346731.327 3
  23103526.746     3618183.195 3   2819362.953 1
  21626075.163     -524235.090 4   -408493.785 2
  24772504.345    -1785346.683 2  -1391175.822 1
 91  7 27  5 28 45.0020000  0  5 12 21 23 11 15
  24182994.563     -370345.220 3   -288579.408 1
  20853370.029      453122.860 5    353082.861 3
  23111473.051     3659957.229 3   2851914.144 1
  21626351.575     -522768.839 4   -407351.238 2
  24763795.988    -1831093.837 2  -1426822.902 1
 91  7 27  5 29  0.0020000  0  5 12 21 23 11 15
  24183498.525     -367681.082 3   -286503.421 1
  20854931.021      461342.558 5    359487.820 3
  23119429.862     3701753.121 3   2884482.370 1
  21626666.656     -521135.613 4   -406078.581 2
  24755089.411    -1876837.371 2  -1462467.127 1
 91  7 27  5 29 15.0020000  0  5 12 21 23 11 15
  24184029.430     -364862.180 3   -284306.831 1
  20856508.555      469632.079 4    365947.192 3
  23127389.639     3743572.027 3   2917068.511 1
  21627010.530     -519334.154 4   -404674.832 2
  24746386.429    -1922575.873 2  -1498107.475 1
 91  7 27  5 29 30.0020000  0  5 12 21 23 11 15
  24184596.946     -361889.422 3   -281990.370 1
  20858097.747      477990.391 4    372460.168 3
  23135350.324     3785412.889 3   2949671.788 1
  21627379.881     -517365.289 4   -403140.641 2
  24737681.353    -1968310.014 2  -1533744.388 1
 91  7 27  5 29 45.0020000  0  5 12 21 23 11 15
  24185193.255     -358763.718 3   -279554.725 1
  20859704.318      486416.398 4    379025.893 3
  23143314.917     3827274.452 3   2982291.207 1
  21627792.090     -515230.002 4   -401476.757 2
  24728977.185    -2014040.688 2  -1569378.610 1
 91  7 27  5 30  0.0020000  0  5 12 21 23 11 15
  24185821.917     -355481.059 3   -276996.801 1
  20861318.394      494913.970 4    385647.385 3
  23151285.793     3869160.700 3   3014929.820 1
  21628226.496     -512924.219 4   -399680.035 2
  24720273.295    -2059763.817 2  -1605006.936 1
 91  7 27  5 30 15.0020000  0  5 12 21 23 11 15
  24186470.646     -352043.933 2   -274318.502 1
  20862951.071      503480.350 4    392322.492 3
  23159258.483     3911068.909 3   3047585.560 1
  21628699.257     -510450.560 4   -397752.493 2
  24711572.442    -2105481.876 2  -1640631.312 1
 91  7 27  5 30 30.0020000  0  5 12 21 23 11 15
  24187154.764     -348452.498 2   -271519.968 1
  20864593.032      512115.438 4    399051.143 3
  23167236.863     3952998.851 3   3080258.221 2
  21629202.626     -507809.050 4   -395694.157 2
  24702877.557    -2151194.774 2  -1676251.677 1
 91  7 27  5 30 45.0020000  0  5 12 21 23 11 15
  24187870.991     -344707.164 3   -268601.520 1
  20866247.906      520818.789 4    405832.987 3
  23175221.838     3994949.875 3   3112947.336 1
  21629736.847     -505000.160 4   -393505.406 2
  24694180.578    -2196902.785 2  -1711868.279 1
 91  7 27  5 31  0.0020000  0  5 12 21 23 11 15
  24188610.880     -340805.193 2   -265561.004 1
  20867918.624      529592.910 4    412669.969 3
  23183203.812     4036924.516 3   3145654.839 1
  21630304.049     -502021.313 4   -391184.204 2
  24685485.693    -2242603.066 2  -1747478.808 1
 91  7 27  5 31 15.0020000  0  5 12 21 23 11 15
  24189384.344     -336747.599 2   -262399.243 1
  20869601.070      538436.615 4    419561.181 3
  23191199.851     4078921.486 3   3178379.742 1
  21630900.951     -498873.533 4   -388731.386 2
  24676790.215    -2288296.445 2  -1783084.035
 91  7 27  5 31 30.0020000  0  5 12 21 23 11 15
  24190183.878     -332534.189 2   -259116.074 1
  20871297.301      547349.918 4    426506.620 3
  23199197.425     4120940.967 3   3211122.184 2
  21631535.895     -495556.639 4   -386146.773 2
  24668096.830    -2333982.526 2  -1818683.474
 91  7 27  5 31 45.0020000  0  5 12 21 23 11 15
  24191020.616     -328164.586 2   -255711.167 1
  20873008.504      556333.200 4    433506.593 3
  23207200.095     4162983.235 3   3243882.375 2
  21632194.536     -492070.091 4   -383429.981 2
  24659406.133    -2379660.669 2  -1854276.811 1
 91  7 27  5 32  0.0020000  0  5 12 21 23 11 15
  24191882.796     -323639.099 2   -252184.812 1
  20874731.120      565385.882 4    440560.643 3
  23215204.265     4205047.675 3   3276659.842 1
  21632893.347     -488414.292 4   -380581.295 2
  24650713.377    -2425331.284 2  -1889864.241 1
 91  7 27  5 32 15.0020000  0  5 12 21 23 11 15
  24192765.987     -318957.770 2   -248537.032 1
  20876466.614      574507.975 4    447668.780 3
  23223207.494     4247134.105 3   3309454.493 2
  21633617.950     -484589.186 4   -377600.683 2
  24642019.993    -2470994.232 2  -1925445.697 1
 91  7 27  5 32 30.0020000  0  5 12 21 23 11 15
  24193690.848     -314118.445 3   -244766.123 1
  20878215.614      583701.495 4    454832.572 3
  23231226.357     4289244.604 3   3342267.855 1
  21634382.444     -480592.676 4   -374486.510 2
  24633332.890    -2516647.249 2  -1961019.410 1
 91  7 27  5 32 45.0020000  0  5 12 21 23 11 15
  24194637.906     -309122.425 3   -240873.125 1
  20879980.494      592965.039 4    462050.927 3
  23239241.905     4331377.840 3   3375098.937 1
  21635172.974     -476426.147 4   -371239.859 2
  24624646.695    -2562291.411 2  -1996586.220 1
 91  7 27  5 33  0.0020000  0  5 12 21 23 11 15
  24195625.414     -303968.559 3   -236857.080 1
  20881755.844      602299.653 4    469324.656 3
  23247262.549     4373534.873 3   3407948.558 2
  21635995.019     -472088.391 4   -367859.773 2
  24615959.942    -2607925.313 2  -2032145.065 1
 91  7 27  5 33 15.0020000  0  5 12 21 23 11 15
  24196629.709     -298657.862 3   -232718.853 1
  20883544.422      611704.235 4    476652.917 3
  23255289.789     4415714.418 3   3440815.719 2
  21636854.826     -467580.388 4   -364347.042 2
  24607288.720    -2653549.750 2  -2067696.509 1
 91  7 27  5 33 30.0020000  0  5 12 21 23 11 15
  24197667.299     -293189.220 3   -228457.576 1
  20885346.785      621179.852 4    484036.518 3
  23263322.438     4457917.313 3   3473701.090 2
  21637746.986     -462901.240 4   -360700.942 2
  24598603.746    -2699163.420 2  -2103239.542 1
 91  7 27  5 33 45.0020000  0  5 12 21 23 11 15
  24198743.559     -287562.512 3   -224073.137 1
  20887162.934      630726.610 4    491475.552 3
  23271356.588     4500143.729 3   3506604.773 2
  21638669.160     -458050.695 4   -356921.288 2
  24589921.146    -2744766.001 2  -2138773.951 1
 91  7 27  5 34  0.0020000  0  5 12 21 23 11 15
  24199841.387     -281778.548 3   -219566.150 1
  20888992.868      640343.442 4    498969.202 3
  23279400.615     4542392.567 3   3539525.944 2
  21639621.907     -453029.572 4   -353008.732 2
  24581244.270    -2790358.184 2  -2174300.267 1
 91  7 27  5 34 15.0020000  0  5 12 21 23 11 15
  24200975.197     -275837.219 3   -214936.497 1
  20890838.369      650030.395 4    506517.488 3
  23287441.640     4584664.010 3   3572464.709 1
  21640611.230     -447837.814 4   -348963.188 2
  24572573.361    -2835939.688 2  -2209818.266 1
 91  7 27  5 34 30.0020000  0  5 12 21 23 11 15
  24202136.614     -269740.209 3   -210185.551 1
  20892695.002      659785.745 4    514119.068 3
  23295492.263     4626956.230 3   3605419.672 2
  21641633.812     -442476.998 4   -344785.918 2
  24563889.574    -2881511.934 2  -2245329.012 1
 91  7 27  5 34 45.0020000  0  5 12 21 23 11 15
  24203323.787     -263483.546 3   -205310.204 1
  20894565.107      669613.408 4    521776.990 3
  23303542.607     4669273.008 3   3638393.762 1
  21642682.466     -436943.117 4   -340473.799 2
  24555237.268    -2927070.759 2  -2280829.360 1
 91  7 27  5 35  0.0020000  0  5 12 21 23 11 15
  24204549.630     -257069.123 3   -200311.946 1
  20896444.809      679511.315 4    529489.659 3
  23311600.699     4711612.317 3   3671385.421 1
  21643770.138     -431238.183 4   -336028.399 2
  24546561.857    -2972617.982 2  -2316320.590 1
 91  7 27  5 35 15.0020000  0  5 12 21 23 11 15
  24205796.169     -250497.151 3   -195190.901 1
  20898345.766      689479.131 4    537256.797 3
  23319661.548     4753973.710 3   3704394.285 2
  21644888.662     -425362.459 4   -331449.903 2
  24537906.863    -3018153.697 2  -2351802.903 1
 91  7 27  5 35 30.0020000  0  5 12 21 23 11 15
  24207076.282     -243766.624 3   -189946.346 1
  20900252.447      699517.809 4    545079.147 3
  23327725.363     4796358.032 3   3737421.015 2
  21646043.447     -419314.924 4   -326737.531 2
  24529243.144    -3063676.839 2  -2387275.413 1
 91  7 27  5 35 45.0020000  0  5 12 21 23 11 15
  24208385.467     -236876.884 3   -184577.667 1
  20902177.729      709627.982 4    552957.215 3
  23335798.776     4838765.993 3   3770466.162 1
  21647225.246     -413094.869 4   -321890.727 2
  24520579.146    -3109186.436 2  -2422737.364 1
 91  7 27  5 36  0.0020000  0  5 12 21 23 11 15
  24209728.855     -229828.614 3   -179085.512 1
  20904114.669      719808.741 4    560890.287 3
  23343870.060     4881196.543 3   3803528.900 1
  21648435.802     -406703.093 4   -316910.121 2
  24511917.556    -3154683.007 2  -2458189.166 1
 91  7 27  5 36 15.0020000  0  5 12 21 23 11 15
  24211096.498     -222622.946 3   -173470.672 1
  20906067.243      730059.004 4    568877.517 3
  23351948.883     4923648.680 3   3836608.492 1
  21649687.437     -400140.699 4   -311796.578 2
  24503259.840    -3200167.590 2  -2493631.567 1
 91  7 27  5 36 30.0020000  0  5 12 21 23 11 15
  24212493.248     -215258.282 3   -167731.977 1
  20908026.973      740380.304 5    576920.094 3
  23360028.578     4966123.804 3   3869705.987 1
  21650972.331     -393406.143 4   -306548.855 2
  24494611.442    -3245638.269 2  -2529063.232 1
 91  7 27  5 36 45.0020000  0  5 12 21 23 11 15
  24213938.824     -207734.375 3   -161869.171 1
  20910008.899      750772.998 5    585018.306 3
  23368114.904     5008622.261 3   3902821.668 1
  21652282.424     -386499.056 4   -301166.707 2
  24485963.917    -3291094.311 2  -2564483.468 1
 91  7 27  5 37  0.0020000  0  5 12 21 23 11 15
  24215397.034     -200052.412 3   -155883.202 1
  20912001.015      761235.662 5    593171.040 3
  23376208.979     5051142.580 3   3935954.375 1
  21653630.593     -379420.713 4   -295651.131 2
  24477316.392    -3336536.948 2  -2599893.212 1
 91  7 27  5 37 15.0020000  0  5 12 21 23 11 15
  24216881.001     -192212.857 2   -149774.461 1
  20914004.231      771767.669 5    601377.804 3
  23384303.681     5093684.030 3   3969103.558 1
  21655011.743     -372171.606 4   -290002.474 2
  24468664.399    -3381966.485 2  -2635292.756 1
 91  7 27  5 37 30.0020000  0  5 12 21 23 11 15
  24218403.951     -184214.312 2   -143541.808 1
  20916021.546      782370.468 5    609639.737 3
  23392403.479     5136248.117 3   4002270.363 1
  21656423.186     -364750.317 4   -284219.643 2
  24460022.284    -3427381.338 2  -2670680.887 1
 91  7 27  5 37 45.0020000  0  5 12 21 23 11 15
  24219960.162     -176056.344 2   -137184.899 1
  20918052.646      793044.375 5    617957.075 3
  23400506.871     5178835.248 3   4035455.106 1
  21657869.076     -357156.530 4   -278302.406 2
  24451389.766    -3472780.682 2  -2706056.924 1
 91  7 27  5 38  0.0020000  0  5 12 21 23 11 15
  24221543.385     -167738.658 2   -130703.648 1
  20920096.032      803789.682 4    626330.057 3
  23408615.045     5221445.554 3   4068657.956 1
  21659346.132     -349389.829 4   -272250.432 2
  24442758.120    -3518164.105 2  -2741420.566 1
 91  7 27  5 38 15.0020000  0  5 12 21 23 11 15
  24223161.962     -159262.340 3   -124098.669 1
  20922157.077      814605.160 4    634757.696 3
  23416725.627     5264077.826 3   4101877.930 1
  21660856.518     -341451.379 4   -266064.631 2
  24434111.502    -3563532.354 2  -2776772.356 1
 91  7 27  5 38 30.0020000  0  5 12 21 23 11 15
  24224788.323     -150634.282 2   -117375.462 1
  20924225.975      825483.948 5    643234.686 3
  23424846.121     5306725.145 3   4135109.596 1
  21662401.037     -333348.090 4   -259750.365 2
  24425484.673    -3608892.278 2  -2812117.656 1
 91  7 27  5 38 45.0020000  0  5 12 21 23 11 15
  24226469.581     -141849.728 3   -110530.396 1
  20926306.215      836430.666 4    651764.607 3
  23432963.613     5349391.951 3   4168356.446 1
  21663975.535     -325075.242 4   -253303.996 2
  24416857.565    -3654238.846 2  -2847452.590 1
 91  7 27  5 39  0.0020000  0  5 12 21 23 11 15
  24228173.595     -132905.440 3   -103560.766 1
  20928405.965      847448.582 4    660350.011 3
  23441090.668     5392081.506 3   4201621.043 1
  21665580.641     -316629.553 4   -246722.950 2
  24408224.139    -3699568.560 2  -2882774.410 1
 91  7 27  5 39 15.0020000  0  5 12 21 23 11 15
  24229900.678     -123802.436 2    -96467.493 1
  20930515.906      858536.570 5    668990.003 3
  23449216.850     5434792.660 3   4234902.454 1
  21667222.009     -308012.082 4   -240008.020 2
  24399608.094    -3744882.174 2  -2918083.609 1
 91  7 27  5 39 30.0020000  0  5 12 21 23 11 15
  24231663.778     -114539.326 2    -89249.438 1
  20932637.224      869696.005 5    677685.676 3
  23457347.500     5477526.836 3   4268201.797 1
  21668895.729     -299221.396 4   -233158.144 2
  24390995.051    -3790178.136 2  -2953379.116 1
 91  7 27  5 39 45.0020000  0  5 12 21 23 11 15
  24233462.512     -105116.224 2    -81906.744 1
  20934774.143      880926.651 5    686436.838 3
  23465482.094     5520283.744 3   4301518.892 1
  21670599.743     -290257.653 4   -226173.414 2
  24382373.631    -3835456.362 2  -2988660.793 1
 91  7 27  5 40  0.0020000  0  5 12 21 23 11 15
  24235285.571      -95534.031 2    -74440.085 1
  20936926.383      892227.541 5    695242.733 3
  23473620.840     5563062.559 3   4334853.026 1
  21672339.146     -281121.725 4   -219054.507 2
  24373756.713    -3880717.600 2  -3023929.241 1
 91  7 27  5 40 15.0020000  0  5 12 21 23 11 15
  24237140.076      -85792.857 2    -66849.579 1
  20939088.465      903598.624 5    704103.325 3
  23481764.403     5605862.904 3   4368203.954 2
  21674108.842     -271813.767 4   -211801.553 2
  24365161.958    -3925961.579 2  -3059184.243 1
 91  7 27  5 40 30.0020000  0  5 12 21 23 11 15
  24239023.059      -75893.015 3    -59135.339 1
  20941267.648      915039.513 5    713018.320 3
  23489916.971     5648684.425 3   4401571.370 1
  21675910.577     -262334.022 4   -204414.738 2
  24356544.133    -3971188.336 2  -3094425.783 1
 91  7 27  5 40 45.0020000  0  5 12 21 23 11 15
  24240939.337      -65834.151 2    -51297.281 1
  20943458.558      926550.491 5    721987.921 3
  23498068.630     5691527.467 3   4434955.538 1
  21677746.514     -252682.252 4   -196893.871 2
  24347943.967    -4016397.498 2  -3129653.650 1
 91  7 27  5 41  0.0020000  0  5 12 21 23 11 15
  24242881.686      -55614.473 2    -43333.891 1
  20945662.904      938133.324 5    731013.510 3
  23506224.164     5734393.779 3   4468357.855 1
  21679616.899     -242856.772 4   -189237.659 2
  24339347.118    -4061586.801 2  -3164866.023 1
 91  7 27  5 41 15.0020000  0  5 12 21 23 11 15
  24244865.112      -45234.562 2    -35245.651 1
  20947879.570      949787.416 5    740094.632 3
  23514389.610     5777282.581 3   4501777.718 1
  21681521.485     -232858.109 4   -181446.496 2
  24330747.266    -4106756.750 2  -3200063.357 1
 91  7 27  5 41 30.0020000  0  5 12 21 23 11 15
  24246854.856      -34694.283 2    -27032.455 1
  20950110.930      961512.993 5    749231.449 3
  23522546.679     5820194.212 2   4535215.338 2
  21683460.239     -222686.004 4   -173520.196 2
  24322155.826    -4151906.629 2  -3235245.065 1
 91  7 27  5 41 45.0020000  0  5 12 21 23 11 15
  24248884.456      -24019.817 2    -18714.694 1
  20952351.573      973283.714 5    758403.447 3
  23530722.909     5863102.146 2   4568650.087 1
  21685424.191     -212366.720 4   -165479.185 2
  24313559.884    -4197062.482 3  -3270431.380 1
 91  7 27  5 42  0.0020000  0  5 12 21 23 11 15
  24250950.632      -13205.525 2    -10287.968 1
  20954602.441      985105.169 5    767614.967 3
  23538881.165     5906012.101 3   4602086.386 1
  21687415.122     -201894.655 4   -157319.146 2
  24304964.221    -4242218.402 2  -3305617.830 1
 91  7 27  5 42 15.0020000  0  5 12 21 23 11 15
  24253029.965       -2232.574 2     -1737.618 1
  20956863.466      996996.119 5    776880.652 3
  23547054.707     5948942.709 3   4635538.813 1
  21689437.811     -191251.044 4   -149025.425 2
  24296379.063    -4287355.330 3  -3340789.384 1
 91  7 27  5 42 30.0020000  0  5 12 21 23 11 15
  24255164.510        8900.249 2      6937.287 1
  20959137.404     1008957.874 5    786201.510 3
  23555226.155     5991895.319 2   4669008.361 2
  21691498.577     -180434.609 4   -140597.032 2
  24287790.624    -4332471.857 2  -3375945.075 1
 91  7 27  5 42 45.0020000  0  5 12 21 23 11 15
  24257303.802       20191.595 2     15735.778 1
  20961426.907     1020988.951 5    795576.380 3
  23563406.294     6034868.592 3   4702494.015 1
  21693587.543     -169446.678 4   -132035.010 2
  24279209.654    -4377568.847 2  -3411085.558 1
 91  7 27  5 43  0.0020000  0  5 12 21 23 11 15
  24259485.393       31641.655 2     24657.918 1
  20963732.919     1033089.663 5    805005.523 3
  23571584.024     6077862.508 3   4735995.763 1
  21695711.863     -158287.173 4   -123339.287 2
  24270632.907    -4422646.037 2  -3446210.617 1
 91  7 27  5 43 15.0020000  0  5 12 21 23 11 15
  24261695.464       43251.258 2     33704.370 1
  20966046.120     1045260.758 5    814489.491 3
  23579769.573     6120877.869 3   4769514.240 1
  21697869.791     -146955.220 4   -114509.209 2
  24262060.033    -4467702.350 2  -3481319.366 1
 91  7 27  5 43 30.0020000  0  5 12 21 23 11 15
  24263933.419       55020.361 2     42875.130 1
  20968379.982     1057502.254 5    824028.332 3
  23587959.309     6163914.582 3   4803049.320 1
  21700056.164     -135450.928 4   -105544.823 2
  24253494.071    -4512737.414 3  -3516411.600 1
 91  7 27  5 43 45.0020000  0  5 12 21 23 11 15
  24266205.856       66947.944 2     52169.312 1
  20970716.566     1069813.062 5    833621.175 3
  23596153.233     6206971.549 3   4836600.220 1
  21702280.334     -123775.417 4    -96447.019 2
  24244925.071    -4557752.284 3  -3551488.092 1
 91  7 27  5 44  0.0020000  0  5 12 21 23 11 15
  24268501.363       79036.380 2     61588.825 1
  20973075.347     1082195.426 5    843269.782 3
  23604349.845     6250051.163 3   4870168.755 1
  21704534.448     -111926.183 4    -87213.838 2
  24236365.425    -4602744.215 3  -3586546.683 1
 91  7 27  5 44 15.0020000  0  5 12 21 23 11 15
  24270837.633       91284.375 2     71132.764 1
  20975447.006     1094648.104 5    852973.170 3
  23612555.775     6293151.976 3   4903753.782 1
  21706820.078      -99904.558 4    -77846.355 2
  24227804.244    -4647714.288 3  -3621588.271 1
 91  7 27  5 44 30.0020000  0  5 12 21 23 11 15
  24273198.228      103692.132 2     80801.116 1
  20977828.542     1107171.172 5    862731.412 3
  23620758.389     6336274.124 3   4937355.462 1
  21709144.377      -87710.502 4    -68344.503 2
  24219244.563    -4692661.933 2  -3656612.387 1
 91  7 27  5 44 45.0020000  0  5 12 21 23 11 15
  24275584.860      116259.709 2     90594.112 1
  20980222.711     1119764.923 5    872544.725 3
  23628972.102     6379417.919 3   4970974.031 1
  21711499.528      -75343.841 4    -58708.147 2
  24210700.483    -4737586.642 2  -3691618.579 1
 91  7 27  5 45  0.0020000  0  5 12 21 23 11 15
  24278006.287      128987.445 2    100511.757 1
  20982633.634     1132429.526 5    882413.259 3
  23637189.723     6422583.275 3   5004609.326 1
  21713885.601      -62804.258 4    -48937.025 2
  24202161.184    -4782487.725 2  -3726606.409 1
 91  7 27  5 45 15.0020000  0  5 12 21 23 11 15
  24280459.194      141874.905 2    110553.911 1
  20985057.155     1145164.561 5    892336.671 3
  23645404.937     6465769.768 3   5038261.175 1
  21716303.399      -50092.327 4    -39031.620 3
  24193620.419    -4827365.611 3  -3761576.156 1
 91  7 27  5 45 30.0020000  0  5 12 21 23 11 15
  24282944.768      154923.967 2    120722.033 1
  20987493.554     1157971.923 4    902316.445 3
  23653629.748     6508979.389 3   5071930.982 1
  21718757.807      -37206.224 4    -28990.520 2
  24185079.305    -4872218.164 2  -3796526.143 1
 91  7 27  5 45 45.0020000  0  5 12 21 23 11 15
  24285457.041      168142.001 2    131021.800 1
  20989944.961     1170858.929 4    912358.278 3
  23661861.435     6552219.469 3   5105624.549 1
  21721239.193      -24138.457 4    -18807.846 2
  24176561.924    -4917037.655 2  -3831450.388 1
 91  7 27  5 46  0.0020000  0  5 12 21 23 11 15
  24288013.952      181557.186 2    141475.160 1
  20992420.937     1183853.814 4    922484.167 3
  23670094.622     6595518.184 3   5139363.818 1
  21723766.752      -10860.826 4     -8461.631 2
  24168037.004    -4961795.511 2  -3866326.600 1
 91  7 27  5 46 15.0020000  0  5 12 21 23 11 15
  24290598.154      195132.692 2    152053.507 1
  20994906.232     1196919.709 5    932665.391 3
  23678339.222     6638838.546 3   5173119.975 1
  21726325.163        2589.730 4      2019.327 2
  24159522.310    -5006528.237 2  -3901183.221 1
 91  7 27  5 46 30.0020000  0  5 12 21 23 11 15
  24293203.053      208868.538 2    162756.739 1
  20997405.313     1210056.755 5    942902.060 3
  23686586.229     6682180.605 3   5206893.015 1
  21728921.686       16213.280 4     12635.078 2
  24151011.210    -5051235.565 2  -3936020.074 1
 91  7 27  5 46 45.0020000  0  5 12 21 23 11 15
  24295858.313      222764.336 2    173584.639 1
  20999920.273     1223264.528 5    953193.838 3
  23694839.798     6725544.119 3   5240682.755 1
  21731543.058       30009.424 4     23385.315 2
  24142512.396    -5095917.618 2  -3970837.222 1
 91  7 27  5 47  0.0020000  0  5 12 21 23 11 15
  24298532.489      236822.373 2    184538.916 1
  21002446.611     1236545.257 5    963542.463 3
  23703093.682     6768931.305 3   5274490.944 1
  21734200.726       43980.463 4     34271.837 2
  24134016.862    -5140571.781 2  -4005632.585 1
 91  7 27  5 47 15.0020000  0  5 12 21 23 11 15
  24301234.516      251040.470 2    195617.923 1
  21004986.455     1249896.808 5    973946.279 3
  23711350.566     6812339.909 3   5308315.847 1
  21736893.748       58124.185 4     45292.919 2
  24125524.050    -5185200.088 2  -4040407.859 1
 91  7 27  5 47 30.0020000  0  5 12 21 23 11 15
  24303971.897      265419.198 2    206822.138 1
  21007541.586     1263319.752 5    984405.718 3
  23719616.455     6855770.383 3   5342157.752 1
  21739621.287       72441.073 4     56448.933 2
  24117035.706    -5229801.442 2  -4075162.104 1
 91  7 27  5 47 45.0020000  0  5 12 21 23 11 15
  24306741.700      279959.104 2    218151.922 1
  21010112.910     1276814.672 5    994921.250 3
  23727888.940     6899223.292 3   5376017.164 1
  21742371.267       86931.746 4     67740.364 2
  24108556.994    -5274375.076 2  -4109894.752 1
 91  7 27  5 48  0.0020000  0  5 12 21 23 11 15
  24309533.944      294659.817 2    229607.058 1
  21012690.203     1290381.251 5   1005492.614 3
  23736164.113     6942698.538 3   5409893.974 1
  21745168.327      101595.738 4     79166.854 2
  24100076.468    -5318920.928 2  -4144605.780 1
 91  7 27  5 48 15.0020000  0  5 12 21 23 11 15
  24312363.392      309520.827 2    241187.030 1
  21015286.725     1304019.052 5   1016119.481 3
  23744432.375     6986195.269 3   5443787.530 2
  21747990.865      116432.620 4     90728.062 2
  24091598.943    -5363438.926 2  -4179295.054 1
 91  7 27  5 48 30.0020000  0  5 12 21 23 11 15
  24315221.040      324541.671 2    252891.612 2
  21017895.498     1317727.793 5   1026801.621 3
  23752721.333     7029713.415 3   5477697.738 2
  21750848.792      131441.919 4    102423.613 2
  24083139.984    -5407929.379 2  -4213962.927 1
 91  7 27  5 48 45.0020000  0  5 12 21 23 11 15
  24318109.819      339724.611 2    264722.378 2
  21020515.404     1331509.465 5   1037540.591 3
  23761001.287     7073254.874 2   5511626.153 1
  21753736.105      146625.684 4    114255.130 2
  24074681.934    -5452389.894 2  -4248607.395 1
 91  7 27  5 49  0.0020000  0  5 12 21 23 11 15
  24321033.393      355069.122 2    276679.199 1
  21023154.470     1345363.591 5   1048336.023 3
  23769292.060     7116819.072 3   5545572.269 1
  21756657.272      161983.478 4    126222.241 2
  24066225.104    -5496820.609 2  -4283228.690 1
 91  7 27  5 49 15.0020000  0  5 12 21 23 11 15
  24323976.756      370574.482 2    288761.253 1
  21025804.041     1359289.589 5   1059187.454 3
  23777591.209     7160405.517 3   5579535.729 1
  21759609.918      177514.521 4    138324.349 2
  24057771.242    -5541222.044 2  -4317827.162 1
 91  7 27  5 49 30.0020000  0  5 12 21 23 11 15
  24326960.011      386241.206 2    300969.155 1
  21028465.898     1373287.875 5   1070095.221 3
  23785887.671     7204014.668 2   5613516.856 1
  21762603.957      193219.264 4    150561.814 2
  24049330.606    -5585593.229 2  -4352402.080 1
 91  7 27  5 49 45.0020000  0  5 12 21 23 11 15
  24329977.991      402070.177 2    313303.408 1
  21031142.726     1387359.294 5   1081059.972 3
  23794183.539     7247647.321 2   5647516.310 1
  21765627.661      209098.609 4    162935.326 2
  24040894.124    -5629932.917 2  -4386952.394 1
 91  7 27  5 50  0.0020000  0  5 12 21 23 11 15
  24333021.204      418060.812 2    325763.669 1
  21033838.471     1401503.533 5   1092081.465 3
  23802503.384     7291302.897 3   5681533.646 1
  21768681.065      225152.116 4    175444.561 2
  24032458.863    -5674241.226 3  -4421478.294 1
 91  7 27  5 50 15.0020000  0  5 12 21 23 11 15
  24336090.174      434213.137 2    338349.905 1
  21036542.905     1415720.409 5   1103159.558 3
  23810806.721     7334981.391 3   5715568.824 2
  21771763.820      241379.662 4    188089.396 2
  24024038.016    -5718518.188 3  -4455979.748 1
 91  7 27  5 50 30.0020000  0  5 12 21 23 11 15
  24339190.031      450526.029 2    351061.234 1
  21039260.532     1430008.913 5   1114293.467 3
  23819123.565     7378681.672 3   5749620.975 1
  21774888.247      257780.016 4    200868.891 2
  24015611.132    -5762764.276 3  -4490457.202 1
 91  7 27  5 50 45.0020000  0  5 12 21 23 11 15
  24342333.967      467000.973 2    363898.843 1
  21041994.633     1444370.572 5   1125484.374 3
  23827445.504     7422405.333 3   5783691.352 1
  21778039.966      274354.678 4    213784.222 2
  24007206.444    -5806977.744 3  -4524909.195 1
 91  7 27  5 51  0.0020000  0  5 12 21 23 11 15
  24345498.878      483636.826 2    376861.866 1
  21044741.332     1458804.240 5   1136731.391 3
  23835769.851     7466151.243 2   5817779.074 1
  21781228.853      291102.425 4    226834.422 2
  23998793.973    -5851159.320 3  -4559336.341 1
 91  7 27  5 51 15.0020000  0  5 12 21 23 11 15
  24348693.454      500433.519 2    389950.197 1
  21047503.631     1473310.004 5   1148034.597 3
  23844098.386     7509919.400 3   5851884.109 1
  21784443.253      308023.352 4    240019.565 2
  23990392.601    -5895308.745 3  -4593738.444 1
 91  7 27  5 51 30.0020000  0  5 12 21 23 11 15
  24351917.103      517391.433 2    403164.145 1
  21050274.900     1487888.398 5   1159394.394 3
  23852430.516     7553710.240 3   5886006.843 1
  21787704.385      325117.743 4    253339.868 2
  23982000.512    -5939425.157 3  -4628114.809 1
 91  7 27  5 51 45.0020000  0  5 12 21 23 11 15
  24355175.547      534510.143 2    416503.432 1
  21053062.677     1502538.997 5   1170810.444 3
  23860766.834     7597523.241 3   5920146.831 1
  21790990.715      342385.132 4    266794.977 2
  23973610.203    -5983508.730 3  -4662465.602 1
 91  7 27  5 52  0.0020000  0  5 12 21 23 11 15
  24358461.283      551789.389 2    429967.806 1
  21055866.927     1517261.581 5   1182282.597 3
  23869111.563     7641358.315 3   5954304.036 1
  21794304.301      359825.127 4    280384.583 2
  23965229.805    -6027559.542 3  -4696790.861 1
 91  7 27  5 52 15.0020000  0  5 12 21 23 11 15
  24361784.503      569227.382 2    443555.844 1
  21058681.368     1532054.477 5   1193809.545 3
  23877456.571     7685213.709 2   5988477.056 1
  21797655.406      377436.041 4    294107.378 2
  23956849.408    -6071578.834 3  -4731091.580 1
 91  7 27  5 52 30.0020000  0  5 12 21 23 11 15
  24365134.665      586825.608 2    457268.719 1
  21061509.630     1546919.146 5   1205392.404 3
  23885804.302     7729090.787 2   6022666.981 1
  21801040.958      395219.322 4    307964.479 2
  23948479.202    -6115564.784 3  -4765366.272 1
 91  7 27  5 52 45.0020000  0  5 12 21 23 11 15
  24368513.028      604583.218 2    471105.830 1
  21064350.455     1561854.772 5   1217030.566 3
  23894162.223     7772988.690 3   6056873.172 1
  21804457.082      413174.109 4    321955.234 2
  23940110.810    -6159517.931 3  -4799615.431 1
 91  7 27  5 53  0.0020000  0  5 12 21 23 11 15
  24371921.963      622501.021 2    485067.769 1
  21067208.662     1576862.247 5   1228724.708 3
  23902514.421     7816908.421 3   6091096.324 1
  21807908.282      431301.232 4    336080.258 2
  23931760.078    -6203437.192 3  -4833838.171 1
 91  7 27  5 53 15.0020000  0  5 12 21 23 11 15
  24375366.601      640578.652 2    499154.266 1
  21070077.373     1591941.259 5   1240474.597 3
  23910877.752     7860849.651 3   6125336.244 1
  21811388.902      449600.245 4    350339.230 2
  23923405.473    -6247322.441 3  -4868034.432 1
 91  7 27  5 53 30.0020000  0  5 12 21 23 11 15
  24378834.273      658817.651 2    513366.514 1
  21072962.278     1607093.346 5   1252281.427 3
  23919241.048     7904813.983 2   6159594.184 1
  21814904.842      468072.628 4    364733.306 2
  23915068.247    -6291171.905 3  -4902202.780 1
 91  7 27  5 53 45.0020000  0  5 12 21 23 11 15
  24382332.274      677215.642 3    527702.612 1
  21075856.187     1622316.216 5   1264143.408 3
  23927616.350     7948799.014 3   6193868.215 1
  21818453.797      486715.982 4    379260.600 2
  23906728.300    -6334987.521 3  -4936344.755 1
 91  7 27  5 54  0.0020000  0  5 12 21 23 11 15
  24385860.533      695772.428 3    542162.460 1
  21078766.569     1637609.647 5   1276060.380 3
  23935989.872     7992804.597 3   6228158.266 1
  21822034.826      505530.019 4    393920.882 2
  23898394.669    -6378769.076 3  -4970460.213 1
 91  7 27  5 54 15.0020000  0  5 12 21 23 11 15
  24389430.150      714490.156 3    556747.687 1
  21081692.238     1652975.952 5   1288034.135 3
  23944368.454     8036832.824 3   6262465.970 1
  21825643.706      524516.880 4    408715.840 2
  23890069.135    -6422514.030 3  -5004547.137 1
 91  7 27  5 54 30.0020000  0  5 12 21 23 11 15
  24393023.150      733366.911 3    571456.836 1
  21084626.910     1668413.197 5   1300063.165 3
  23952747.665     8080881.813 3   6296789.846 1
  21829289.510      543674.692 4    423644.016 2
  23881754.106    -6466223.901 3  -5038606.718 1
 91  7 27  5 54 45.0020000  0  5 12 21 23 11 15
  24396642.569      752402.725 2    586289.939 1
  21087580.779     1683921.530 5   1312147.594 3
  23961136.438     8124951.725 3   6331130.071 1
  21832971.262      563003.412 4    438705.357 2
  23873442.358    -6509898.286 3  -5072638.651 1
 91  7 27  5 55  0.0020000  0  5 12 21 23 11 15
  24400297.029      771598.046 2    601247.348 1
  21090544.210     1699501.562 5   1324287.890 3
  23969526.433     8169043.101 3   6365486.949 1
  21836680.585      582503.664 4    453900.354 2
  23865137.800    -6553536.410 3  -5106642.338 1
 91  7 27  5 55 15.0020000  0  5 12 21 23 11 15
  24403979.688      790954.160 2    616330.041 1
  21093523.869     1715154.593 5   1336485.068 3
  23977918.522     8213157.159 2   6399861.532 1
  21840422.295      602176.528 4    469229.859 2
  23856835.370    -6597136.680 3  -5140616.526 1
 91  7 27  5 55 30.0020000  0  5 12 21 23 11 15
  24407689.011      810469.380 2    631536.715 1
  21096513.685     1730879.051 5   1348737.901 3
  23986316.928     8257292.311 3   6434252.549 1
  21844200.861      622020.289 4    484692.540 2
  23848548.506    -6640700.146 3  -5174562.007 1
 91  7 27  5 55 45.0020000  0  5 12 21 23 11 15
  24411429.221      830118.665 2    646847.809 1
  21099516.693     1746649.889 5   1361026.879 3
  23994716.800     8301423.517 2   6468640.499 1
  21848003.752      642009.831 4    500268.803 2
  23840259.234    -6684251.653 3  -5208498.194 1
 91  7 27  5 56  0.0020000  0  5 12 21 23 11 15
  24415199.410      849907.840 2    662267.946 1
  21102527.832     1762473.271 5   1373356.795 3
  24003112.204     8345556.800 3   6503030.070 1
  21851834.773      662151.115 4    515963.312 2
  23831978.372    -6727784.699 3  -5242419.994 1
 91  7 27  5 56 15.0020000  0  5 12 21 23 11 15
  24418989.388      869856.456 2    677812.329 1
  21105552.444     1778368.484 5   1385742.688 3
  24011516.264     8389711.603 3   6537436.389 1
  21855700.903      682463.530 4    531791.177 2
  23823699.291    -6771279.591 3  -5276312.045 1
 91  7 27  5 56 30.0020000  0  5 12 21 23 11 15
  24422810.253      889962.233 2    693479.163 1
  21108592.342     1794333.420 5   1398182.916 3
  24019926.955     8433885.797 3   6571857.792 1
  21859595.233      702944.679 4    547750.513 2
  23815428.621    -6814738.329 3  -5310175.963 1
 91  7 27  5 56 45.0020000  0  5 12 21 23 11 15
  24426682.351      910225.628 2    709268.838 1
  21111642.709     1810368.697 5   1410677.940 3
  24028329.549     8478079.946 2   6606294.791 1
  21863529.385      723595.150 4    563841.785 2
  23807169.956    -6858159.985 3  -5344010.944 1
 91  7 27  5 57  0.0020000  0  5 12 21 23 11 15
  24430559.266      930645.757 2    725180.634 1
  21114706.584     1826473.599 5   1423227.217 3
  24036750.116     8522293.214 2   6640746.688 1
  21867489.363      744414.025 4    580064.282 2
  23798907.662    -6901544.930 3  -5377817.349 1
 91  7 27  5 57 15.0020000  0  5 12 21 23 11 15
  24434471.256      951222.852 2    741214.734 1
  21117785.744     1842648.426 4   1435830.990 3
  24045164.088     8566525.916 2   6675213.735 1
  21871485.882      765401.475 4    596418.142 2
  23790663.656    -6944892.354 3  -5411594.462 1
 91  7 27  5 57 30.0020000  0  5 12 21 23 11 15
  24438414.133      971958.380 2    757372.293 1
  21120875.410     1858894.711 4   1448490.438 3
  24053584.062     8610779.818 2   6709697.287 1
  21875509.692      786559.058 4    612904.572 2
  23782419.963    -6988200.411 3  -5445340.940 1
 91  7 27  5 57 45.0020000  0  5 12 21 23 11 15
  24442391.491      992852.493 2    773653.424 1
  21123980.362     1875212.710 5   1461205.778 3
  24062014.507     8655055.056 3   6744197.424 1
  21879570.986      807886.773 4    629523.575 2
  23774186.776    -7031468.663 3  -5479056.403 1
 91  7 27  5 58  0.0020000  0  5 12 21 23 11 15
  24446412.894     1013948.688 2    790092.022 1
  21127109.291     1891646.032 5   1474010.975 3
  24070443.171     8699394.971 3   6778748.002 1
  21883666.169      829428.147 4    646309.060 2
  23765974.843    -7074653.141 3  -5512706.547 1
 91  7 27  5 58 15.0020000  0  5 12 21 23 11 15
  24450458.308     1035203.326 2    806654.098 1
  21130249.632     1908151.190 5   1486872.154 3
  24078887.436     8743756.294 2   6813315.271 1
  21887799.392      851139.539 4    663227.022 2
  23757754.848    -7117797.025 3  -5546325.101 1
 91  7 27  5 58 30.0020000  0  5 12 21 23 11 15
  24454534.888     1056614.563 2    823338.195 1
  21133402.258     1924726.356 5   1499787.874 3
  24087330.794     8788137.032 2   6847897.648 1
  21891962.909      873018.988 4    680275.940 2
  23749560.331    -7160901.910 3  -5579913.225 1
 91  7 27  5 58 45.0020000  0  5 12 21 23 11 15
  24458634.852     1078184.138 2    840145.670 1
  21136570.450     1941373.348 5   1512759.567 3
  24095783.435     8832538.863 2   6882496.449 1
  21896159.408      895068.218 4    697457.164 2
  23741370.595    -7203965.604 3  -5613469.280 1
 91  7 27  5 59  0.0020000  0  5 12 21 23 11 15
  24462770.483     1099913.240 2    857077.452 1
  21139751.869     1958093.477 5   1525788.257 3
  24104233.075     8876963.119 2   6917112.720 1
  21900386.164      917288.364 4    714771.561 2
  23733176.077    -7246986.545 3  -5646992.008 1
 91  7 27  5 59 15.0020000  0  5 12 21 23 11 15
  24466929.499     1121799.843 2    874131.942 1
  21142947.632     1974884.768 5   1538872.384 3
  24112694.720     8921408.051 2   6951745.119 1
  21904649.218      939677.438 4    732217.595 2
  23725000.127    -7289966.382 3  -5680482.728 1
 91  7 27  5 59 30.0020000  0  5 12 21 23 11 15
  24471128.998     1143844.690 2    891309.739 1
  21146158.717     1991748.067 5   1552012.620 3
  24121151.584     8965874.461 2   6986394.261 1
  21908940.750      962236.191 4    749795.845 2
  23716827.492    -7332903.903 3  -5713940.461 1
 91  7 27  5 59 45.0020000  0  5 12 21 23 11 15
  24475354.568     1166047.908 2    908610.993 1
  21149381.178     2008683.638 5   1565209.179 3
  24129625.515     9010362.483 3   7021060.242 1
  21913266.763      984964.735 4    767506.406 2
  23708665.048    -7375798.100 3  -5747364.435 1
 91  7 27  6  0  0.0020000  0  5 12 21 23 11 15
  24479614.027     1188408.356 3    926034.726 1
  21152615.960     2025690.426 5   1578461.230 3
  24138092.535     9054871.058 3   7055742.242 1
  21917625.758     1007861.836 4    785348.292 2
  23700505.291    -7418650.048 3  -5780755.500 1
 91  7 27  6  0 15.0020000  0  5 12 21 23 11 15
  24483899.556     1210925.826 2    943580.803 1
  21155865.086     2042768.295 5   1591768.668 3
  24146564.965     9099400.019 3   7090440.155 1
  21922009.916     1030927.197 4    803321.304 2
  23692366.509    -7461459.726 3  -5814113.608 1
 91  7 27  6  0 30.0020000  0  5 12 21 23 11 15
  24488208.469     1233601.371 3    961250.052 1
  21159130.441     2059918.438 5   1605132.421 3
  24155048.213     9143950.451 3   7125154.735 1
  21926436.652     1054161.778 4    821426.170 2
  23684228.042    -7504225.560 3  -5847437.555 1
 91  7 27  6  0 45.0020000  0  5 12 21 23 11 15
  24492551.269     1256434.991 2    979042.534 1
  21162408.673     2077141.068 5   1618552.666 3
  24163526.646     9188522.621 3   7159886.273 1
  21930891.274     1077565.619 4    839662.923 2
  23676089.295    -7546946.755 3  -5880726.722 1
 91  7 27  6  1  0.0020000  0  5 12 21 23 11 15
  24496931.239     1279426.230 3    996957.829 1
  21165697.690     2094435.781 5   1632029.080 3
  24172012.861     9233115.991 3   7194634.367 1
  21935374.340     1101138.236 4    858031.195 2
  23667973.897    -7589623.485 3  -5913981.272 1
 91  7 27  6  1 15.0020000  0  5 12 21 23 11 15
  24501338.780     1302574.475 2   1014995.438 1
  21169002.901     2111802.045 5   1645561.242 3
  24180505.673     9277730.283 3   7229398.715 1
  21939888.327     1124879.068 4    876530.548 2
  23659868.131    -7632256.112 3  -5947201.424 1
 91  7 27  6  1 30.0020000  0  5 12 21 23 11 15
  24505770.298     1325879.016 2   1033154.771 1
  21172320.711     2129239.301 5   1659148.717 3
  24188995.204     9322365.005 3   7264179.000 1
  21944440.984     1148787.352 4    895160.377 2
  23651761.737    -7674844.729 3  -5980387.311 1
 91  7 27  6  1 45.0020000  0  5 12 21 23 11 15
  24510227.921     1349339.886 2   1051435.960 1
  21175653.214     2146747.783 5   1672791.709 3
  24197492.832     9367020.123 3   7298975.163 1
  21949024.493     1172863.097 4    913920.694 2
  23643659.252    -7717389.082 3  -6013538.687 1
 91  7 27  6  2  0.0020000  0  5 12 21 23 11 15
  24514727.495     1372956.849 2   1069838.805 1
  21178997.095     2164327.419 5   1686490.130 3
  24205995.834     9411695.594 3   7333787.219 1
  21953637.423     1197105.984 4    932811.258 2
  23635572.926    -7759888.899 3  -6046655.369 1
 91  7 27  6  2 15.0020000  0  5 12 21 23 11 15
  24519245.391     1396724.734 2   1088359.196 1
  21182358.949     2181973.082 5   1700240.002 3
  24214497.336     9456386.202 3   7368611.055 1
  21958275.517     1221510.742 4    951827.952 2
  23627496.511    -7802348.826 3  -6079740.985 1
 91  7 27  6  2 30.0020000  0  5 12 21 23 11 15
  24523791.731     1420611.728 2   1106972.418 1
  21185719.931     2199653.032 5   1714016.590 3
  24223003.061     9501060.262 3   7403421.980 1
  21962948.371     1246045.604 4    970946.015 2
  23619413.815    -7844800.173 3  -6112819.885 1
 91  7 27  6  2 45.0020000  0  5 12 21 23 11 15
  24528375.554     1444655.720 2   1125707.986 1
  21189100.108     2217405.226 5   1727849.473 3
  24231508.192     9545755.660 2   7438249.595 1
  21967648.797     1270748.379 4    990194.929 2
  23611347.591    -7887204.692 3  -6145862.330 1
 91  7 27  6  3  0.0020000  0  5 12 21 23 11 15
  24532977.072     1468856.500 2   1144565.767 1
  21192489.254     2235229.673 5   1741738.660 3
  24240014.475     9590472.456 2   7473093.842 1
  21972384.018     1295618.814 4   1009574.495 2
  23603286.184    -7929562.067 3  -6178867.987 2
 91  7 27  6  3 15.0020000  0  5 12 21 23 11 15
  24537613.351     1493214.409 2   1163545.979 1
  21195895.781     2253126.863 5   1755684.526 3
  24248528.297     9635211.009 2   7507955.045 1
  21977145.624     1320657.214 4   1029084.922 2
  23595235.561    -7971871.457 3  -6211836.310 1
 91  7 27  6  3 30.0020000  0  5 12 21 23 11 15
  24542274.548     1517727.649 2   1182647.224 1
  21199314.628     2271095.184 5   1769685.824 3
  24257043.899     9679969.741 2   7542831.974 1
  21981941.711     1345861.649 4   1048724.735 2
  23587200.504    -8014134.375 3  -6244768.389 1
 91  7 27  6  3 45.0020000  0  5 12 21 23 11 15
  24546969.285     1542398.598 2   1201871.390 1
  21202746.352     2289137.271 5   1783744.597 3
  24265569.412     9724751.112 2   7577726.523 1
  21986772.874     1371234.621 4   1068495.859 2
  23579150.509    -8056347.731 3  -6277661.862 1
 91  7 27  6  4  0.0020000  0  5 12 21 23 11 15
  24551692.500     1567225.617 2   1221217.103 1
  21206194.550     2307251.329 5   1797859.450 3
  24274089.481     9769553.487 2   7612637.507 1
  21991635.203     1396774.359 4   1088396.960 2
  23571136.426    -8098512.863 3  -6310517.766 1
 91  7 27  6  4 15.0020000  0  5 12 21 23 11 15
  24556454.420     1592207.681 2   1240683.635 1
  21209654.754     2325436.566 5   1812029.782 3
  24282622.498     9814376.204 2   7647564.268 1
  21996520.915     1422479.871 4   1108427.225 2
  23563121.506    -8140630.321 3  -6343336.506 1
 91  7 27  6  4 30.0020000  0  5 12 21 23 11 15
  24561230.999     1617345.235 2   1260271.363 1
  21213129.965     2343693.470 5   1826255.942 3
  24291154.886     9859219.531 2   7682507.158 1
  22001446.518     1448351.475 4   1128586.903 2
  23555119.430    -8182699.438 3  -6376117.582 1
 91  7 27  6  4 45.0020000  0  5 12 21 23 11 15
  24566048.969     1642639.622 2   1279981.251 1
  21216618.927     2362023.609 5   1840539.169 3
  24299693.278     9904085.078 2   7717467.261 1
  22006400.600     1474390.494 4   1148877.047 2
  23547120.076    -8224718.149 3  -6408859.416 1
 91  7 27  6  5  0.0020000  0  5 12 21 23 11 15
  24570890.043     1668090.004 2   1299812.755 1
  21220117.521     2380426.221 5   1854878.878 3
  24308222.072     9948972.140 2   7752444.194 1
  22011387.628     1500596.072 4   1169296.958 2
  23539135.694    -8266686.811 3  -6441562.215 1
 91  7 27  6  5 15.0020000  0  5 12 21 23 11 15
  24575761.341     1693695.684 2   1319765.157 1
  21223635.869     2398900.932 5   1869274.759 3
  24316780.252     9993880.139 2   7787437.493 1
  22016410.952     1526967.478 4   1189846.111 2
  23531154.627    -8308605.497 3  -6474226.081 1
 91  7 27  6  5 30.0020000  0  5 12 21 23 11 15
  24580664.155     1719457.335 2   1339839.173 1
  21227164.442     2417448.550 5   1883727.445 3
  24325329.742    10038809.899 2   7822447.700 1
  22021457.974     1553505.471 4   1210525.054 2
  23523191.848    -8350473.243 3  -6506850.263 1
 91  7 27  6  5 45.0020000  0  5 12 21 23 11 15
  24585600.856     1745375.083 2   1360034.818 1
  21230709.489     2436069.340 5   1898237.154 3
  24333890.295    10083761.855 2   7857475.164 1
  22026536.162     1580210.119 4   1231333.857 2
  23515232.036    -8392289.243 3  -6539434.111 1
 91  7 27  6  6  0.0020000  0  5 12 21 23 11 15
  24590556.997     1771447.057 2   1380350.661 1
  21234265.040     2454761.555 5   1912802.528 3
  24342443.065    10128734.159 2   7892518.551 1
  22031647.924     1607079.401 4   1252270.946 2
  23507288.453    -8434054.955 3  -6571978.768 1
 91  7 27  6  6 15.0020000  0  5 12 21 23 11 15
  24595548.562     1797674.235 2   1400787.404 1
  21237834.343     2473526.312 5   1927424.421 3
  24351005.434    10173727.808 2   7927578.477 1
  22036797.727     1634114.334 4   1273337.123 2
  23499347.243    -8475768.920 3  -6604483.127 1
 91  7 27  6  6 30.0020000  0  5 12 21 23 11 15
  24600562.568     1824057.115 2   1421345.507 1
  21241421.654     2492364.365 5   1942103.424 3
  24359572.304    10218743.581 2   7962655.724 1
  22041971.857     1661315.456 4   1294532.791 2
  23491421.633    -8517430.172 3  -6636946.399 1
 91  7 27  6  6 45.0020000  0  5 12 21 23 11 15
  24605617.687     1850593.483 2   1442023.194 1
  21245018.563     2511273.666 5   1956837.952 3
  24368142.490    10263779.273 2   7997748.462 1
  22047180.153     1688680.362 4   1315856.075 2
  23483504.399    -8559040.472 3  -6669369.982 1
 91  7 27  6  7  0.0020000  0  5 12 21 23 11 15
  24610693.781     1877285.249 2   1462821.978 1
  21248632.887     2530256.183 5   1971629.528 3
  24376716.550    10308837.118 2   8032858.460 1
  22052415.742     1716211.009 4   1337308.519 2
  23475591.703    -8600597.445 3  -6701751.984 1
 91  7 27  6  7 15.0020000  0  5 12 21 23 11 15
  24615808.823     1904168.520 2   1483769.964 1
  21252263.963     2549348.252 5   1986506.476 3
  24385295.111    10353953.404 2   8068013.986 1
  22057696.876     1743943.554 4   1358918.295 2
  23467702.948    -8642064.583 3  -6734063.998 1
 91  7 27  6  7 30.0020000  0  5 12 21 23 11 15
  24620958.662     1931212.770 2   1504843.393 1
  21255916.049     2568519.398 5   2001445.034 3
  24393892.555    10399097.526 2   8103191.264 1
  22063003.487     1771847.231 4   1380661.410 2
  23459819.603    -8683471.699 3  -6766329.239 1
 91  7 27  6  7 45.0020000  0  5 12 21 23 11 15
  24626135.164     1958410.233 2   1526036.253 1
  21259575.011     2587762.075 5   2016439.332 3
  24402484.902    10444261.910 3   8138384.255 1
  22068342.207     1799914.206 4   1402531.763 2
  23451950.357    -8724826.012 3  -6798553.336 1
 91  7 27  6  8  0.0020000  0  5 12 21 23 11 15
  24631338.086     1985763.040 2   1547350.130 1
  21263250.445     2607078.624 5   2031491.197 3
  24411085.661    10489448.886 3   8173594.880 1
  22073720.189     1828146.712 4   1424531.116 2
  23444090.989    -8766124.940 3  -6830734.250 1
 91  7 27  6  8 15.0020000  0  5 12 21 23 11 15
  24636578.142     2013269.706 2   1568783.875 1
  21266940.015     2626467.737 5   2046599.595 3
  24419685.198    10534657.099 2   8208822.040 1
  22079121.834     1856543.280 4   1446658.286 2
  23436244.219    -8807369.676 3  -6862872.969 1
 91  7 27  6  8 30.0020000  0  5 12 21 23 11 15
  24641835.020     2040930.463 2   1590337.730 1
  21270643.335     2645929.766 5   2061764.820 3
  24428295.554    10579886.981 2   8244066.123 1
  22084558.589     1885103.907 4   1468913.313 2
  23428408.862    -8848559.587 3  -6894968.949 1
 91  7 27  6  8 45.0020000  0  5 12 21 23 11 15
  24647130.254     2068743.897 2   1612010.554 1
  21274360.755     2665463.441 5   2076985.867 3
  24436904.689    10625137.269 2   8279326.065 1
  22090026.196     1913827.196 4   1491295.086 1
  23420579.159    -8889695.318 3  -6927022.709 1
 91  7 27  6  9  0.0020000  0  5 12 21 23 11 15
  24652453.059     2096712.007 2   1633803.864 1
  21278089.587     2685070.921 5   2092264.426 3
  24445525.201    10670410.093 2   8314603.586 1
  22095520.781     1942715.168 4   1513805.173 2
  23412761.775    -8930774.323 3  -6959032.274 1
 91  7 27  6  9 15.0020000  0  5 12 21 23 11 15
  24657801.970     2124832.901 2   1655716.237 1
  21281835.800     2704750.511 5   2107599.172 3
  24454140.339    10715703.708 2   8349897.306 1
  22101048.068     1971765.918 4   1536442.123 2
  23404960.585    -8971798.086 3  -6990998.780 1
 91  7 27  6  9 30.0020000  0  5 12 21 23 11 15
  24663181.139     2153108.260 2   1677748.946 1
  21285596.985     2724504.062 5   2122991.553 3
  24462766.889    10761019.780 2   8385208.534 1
  22106608.021     2000981.034 4   1559207.142 2
  23397155.173    -9012764.400 3  -7022920.542 1
 91  7 27  6  9 45.0020000  0  5 12 21 23 11 15
  24668595.697     2181540.693 2   1699904.117 1
  21289371.083     2744334.345 5   2138443.728 3
  24471391.310    10806361.350 2   8420539.591 1
  22112200.328     2030362.983 4   1582102.148 2
  23389376.773    -9053670.092 3  -7054795.054 2
 91  7 27  6 10  0.0020000  0  5 12 21 23 11 15
  24674032.138     2210125.933 2   1722178.354 1
  21293156.559     2764237.257 5   2153952.491 3
  24480022.048    10851724.343 2   8455887.355 1
  22117820.868     2059907.482 4   1605123.819 2
  23381599.246    -9094518.900 3  -7086625.225 1
 91  7 27  6 10 15.0020000  0  5 12 21 23 11 15
  24679502.432     2238863.241 2   1744571.103 1
  21296957.321     2784212.312 5   2169517.473 3
  24488659.941    10897108.136 2   8491251.341 1
  22123476.728     2089613.738 4   1628271.545 2
  23373835.819    -9135311.059 3  -7118411.282 1
 91  7 27  6 10 30.0020000  0  5 12 21 23 11 15
  24685004.521     2267752.029 2   1767081.833 1
  21300773.684     2804259.060 5   2185138.326 3
  24497296.682    10942512.217 2   8526631.153 1
  22129154.820     2119481.268 4   1651544.937 2
  23366087.399    -9176046.553 3  -7150153.163 1
 91  7 27  6 10 45.0020000  0  5 12 21 23 11 15
  24690528.806     2296791.250 2   1789709.847 1
  21304599.016     2824376.758 5   2200814.465 3
  24505951.396    10987935.777 2   8562026.083 1
  22134873.640     2149508.961 4   1674943.122 2
  23358343.166    -9216725.898 3  -7181851.281 2
 91  7 27  6 11  0.0020000  0  5 12 21 23 11 15
  24696084.571     2325982.437 2   1812456.225 1
  21308443.264     2844567.087 5   2216547.195 3
  24514592.290    11033380.407 2   8597437.473 1
  22140614.063     2179698.340 4   1698467.306 2
  23350617.815    -9257346.918 3  -7213503.964 1
 91  7 27  6 11 15.0020000  0  5 12 21 23 11 15
  24701660.404     2355323.622 2   1835319.527 1
  21312298.889     2864828.258 5   2232335.119 3
  24523240.409    11078844.470 2   8632864.020 1
  22146391.377     2210047.338 4   1722115.859 2
  23342899.933    -9297911.358 3  -7245112.559 2
 91  7 27  6 11 30.0020000  0  5 12 21 23 11 15
  24707269.498     2384814.822 2   1858299.660 1
  21316167.707     2885160.545 5   2248178.459 3
  24531899.032    11124328.239 2   8668305.876 1
  22152195.668     2240556.032 4   1745888.868 2
  23335185.680    -9338418.721 3  -7276676.680 1
 91  7 27  6 11 45.0020000  0  5 12 21 23 11 15
  24712920.018     2414456.550 2   1881397.146 1
  21320051.532     2905564.642 5   2264077.762 3
  24540558.214    11169832.274 2   8703763.549 1
  22158032.906     2271224.910 4   1769786.681 2
  23327492.717    -9378867.709 3  -7308195.315 2
 91  7 27  6 12  0.0020000  0  5 12 21 23 11 15
  24718583.695     2444248.094 2   1904611.331 1
  21323947.922     2926040.010 5   2280032.593 3
  24549222.527    11215355.996 2   8739236.571 1
  22163902.845     2302053.135 4   1793808.658 2
  23319805.442    -9419258.549 3  -7339668.650 2
 91  7 27  6 12 15.0020000  0  5 12 21 23 11 15
  24724290.231     2474189.494 2   1927942.270 1
  21327859.318     2946586.827 5   2296043.105 3
  24557884.117    11260899.670 2   8774725.105 1
  22169794.667     2333040.655 4   1817954.767 2
  23312128.045    -9459590.668 3  -7371096.203 2
 91  7 27  6 12 30.0020000  0  5 12 21 23 11 15
  24730012.367     2504280.738 2   1951389.977 1
  21331780.312     2967205.303 4   2312109.457 3
  24566557.713    11306463.481 2   8810229.378 1
  22175723.064     2364187.463 4   1842224.994 2
  23304466.841    -9499863.574 3  -7402477.632 2
 91  7 27  6 12 45.0020000  0  5 12 21 23 11 15
  24735758.793     2534520.994 2   1974953.794 1
  21335717.500     2987894.854 4   2328231.190 3
  24575238.219    11352046.805 2   8845748.843 1
  22181681.441     2395492.678 4   1866618.671 2
  23296808.638    -9540077.574 3  -7433813.167 2
 91  7 27  6 13  0.0020000  0  5 12 21 23 11 15
  24741546.297     2564911.301 2   1998634.532 1
  21339672.069     3008656.553 5   2344409.141 3
  24583908.499    11397650.785 2   8881284.363 1
  22187665.016     2426957.268 3   1891136.520 2
  23289173.854    -9580231.376 3  -7465101.769 1
 91  7 27  6 13 15.0020000  0  5 12 21 23 11 15
  24747361.966     2595450.324 2   2022431.173 1
  21343632.012     3029489.296 5   2360642.457 3
  24592589.598    11443274.364 2   8916835.230 1
  22193683.945     2458579.831 3   1915777.467 2
  23281542.036    -9620325.577 3  -7496343.970 2
 91  7 27  6 13 30.0020000  0  5 12 21 23 11 15
  24753204.927     2626139.077 2   2046344.470 1
  21347611.464     3050394.245 5   2376932.025 3
  24601276.387    11488918.564 2   8952402.108 1
  22199731.039     2490361.333 3   1940542.264 2
  23273928.506    -9660358.694 3  -7527538.544 1
 91  7 27  6 13 45.0020000  0  5 12 21 23 11 15
  24759073.052     2656976.172 2   2070373.329 1
  21351604.109     3071370.299 4   2393276.998 3
  24609969.457    11534582.275 2   8987984.205 1
  22205811.148     2522300.213 4   1965429.685 2
  23266316.756    -9700331.349 3  -7558686.004 1
 91  7 27  6 14  0.0020000  0  5 12 21 23 11 15
  24764960.685     2687961.088 2   2094517.398 1
  21355607.224     3092417.087 4   2409677.095 3
  24618654.465    11580265.101 2   9023581.180 1
  22211917.014     2554395.987 3   1990439.373 2
  23258723.328    -9740243.643 3  -7589786.431 2
 91  7 27  6 14 15.0020000  0  5 12 21 23 11 15
  24770891.177     2719093.611 3   2118776.507 1
  21359626.253     3113534.634 4   2426132.338 3
  24627358.320    11625967.116 2   9059193.163 1
  22218057.676     2586648.461 3   2015571.169 2
  23251135.590    -9780095.277 3  -7620839.610 2
 91  7 27  6 14 30.0020000  0  5 12 21 23 11 15
  24776841.736     2750374.720 3   2143151.349 2
  21363659.941     3134724.145 4   2442643.643 3
  24636055.020    11671689.495 2   9094820.990 1
  22224221.093     2619058.560 3   2040825.763 2
  23243567.605    -9819884.710 3  -7651844.312 2
 91  7 27  6 14 45.0020000  0  5 12 21 23 11 15
  24782821.402     2781802.106 3   2167640.222 1
  21367703.854     3155983.613 4   2459209.456 3
  24644766.378    11717430.162 2   9130463.039 1
  22230419.899     2651623.974 3   2066201.411 2
  23236007.438    -9859613.741 3  -7682801.934 2
 91  7 27  6 15  0.0020000  0  5 12 21 23 11 15
  24788833.456     2813376.549 2   2192243.677 1
  21371759.738     3177313.938 4   2475830.501 3
  24653470.546    11763190.008 2   9166120.023 1
  22236648.405     2684345.302 4   2091698.527 2
  23228460.463    -9899281.101 3  -7713711.542 1
 91  7 27  6 15 15.0020000  0  5 12 21 23 11 15
  24794870.079     2845097.628 2   2216961.377 2
  21375839.006     3198714.891 4   2492506.569 3
  24662183.719    11808968.969 2   9201791.968 1
  22242905.041     2717222.125 4   2117316.829 2
  23220921.306    -9938886.606 3  -7744572.911 1
 91  7 27  6 15 30.0020000  0  5 12 21 23 11 15
  24800929.458     2876965.097 2   2241793.160 1
  21379921.275     3220186.491 4   2509237.695 3
  24670891.483    11854766.861 2   9237478.586 1
  22249192.006     2750254.279 4   2143056.143 2
  23213395.585    -9978429.914 3  -7775385.830 1
 91  7 27  6 15 45.0020000  0  5 12 21 23 11 15
  24807023.039     2908978.068 2   2266738.345 1
  21384020.052     3241727.960 4   2526023.261 3
  24679613.346    11900583.046 2   9273179.531 1
  22255505.041     2783440.751 4   2168915.746 2
  23205883.999   -10017911.220 3  -7806150.444 1
 91  7 27  6 16  0.0020000  0  5 12 21 23 11 15
  24813143.005     2941136.661 2   2291796.970 1
  21388130.800     3263339.854 4   2542863.697 3
  24688338.804    11946417.809 2   9308894.900 1
  22261852.557     2816781.786 4   2194895.740 2
  23198380.510   -10057329.782 3  -7836866.155 1
 91  7 27  6 16 15.0020000  0  5 12 21 23 11 15
  24819289.949     2973440.208 2   2316968.528 1
  21392257.741     3285021.674 4   2559758.624 3
  24697057.386    11992271.043 2   9344624.654 1
  22268224.923     2850276.523 4   2220995.519 1
  23190894.367   -10096685.777 3  -7867533.109 1
 91  7 27  6 16 30.0020000  0  5 12 21 23 11 15
  24825467.780     3005888.632 2   2342253.024 1
  21396399.376     3306773.445 5   2576708.051 3
  24705788.847    12038142.573 2   9380368.727 1
  22274625.209     2883924.740 4   2247214.894 2
  23183416.041   -10135978.941 3  -7898151.105 1
 91  7 27  6 16 45.0020000  0  5 12 21 23 11 15
  24831670.809     3038484.367 2   2367652.271 1
  21400549.422     3328597.916 4   2593714.137 3
  24714530.778    12084035.062 2   9416129.082 1
  22281056.662     2917728.985 3   2273555.845 2
  23175946.441   -10175206.155 3  -7928717.742 1
 91  7 27  6 17  0.0020000  0  5 12 21 23 11 15
  24837896.279     3071225.822 2   2393165.075 1
  21404718.314     3350493.632 5   2610775.740 3
  24723259.551    12129946.980 2   9451904.541 1
  22287521.967     2951687.501 3   2300017.029 2
  23168501.096   -10214368.274 3  -7959233.626 1
 91  7 27  6 17 15.0020000  0  5 12 21 23 11 15
  24844157.138     3104111.904 2   2418790.594 1
  21408896.524     3372459.774 4   2627892.215 3
  24731997.608    12175877.495 2   9487694.698 1
  22294010.970     2985799.084 3   2326597.472 2
  23161059.625   -10253465.962 3  -7989699.307 2
 91  7 27  6 17 30.0020000  0  5 12 21 23 11 15
  24850438.692     3137143.350 2   2444529.362 1
  21413090.335     3394497.303 4   2645064.319 3
  24740749.451    12221827.600 2   9523499.896 1
  22300536.270     3020064.542 4   2353297.816 2
  23153631.067   -10292497.860 3  -8020113.751 2
 91  7 27  6 17 45.0020000  0  5 12 21 23 11 15
  24856750.227     3170320.217 2   2470381.460 1
  21417298.525     3416606.524 4   2662292.282 3
  24749490.195    12267797.420 2   9559320.499 1
  22307084.918     3054483.860 3   2380118.043 2
  23146219.890   -10331463.362 3  -8050476.440 2
 91  7 27  6 18  0.0020000  0  5 12 21 23 11 15
  24863096.836     3203640.997 2   2496345.715 1
  21421519.593     3438786.110 4   2679575.083 3
  24758243.817    12313785.885 2   9595155.707 1
  22313664.767     3089055.326 3   2407056.836 2
  23138818.939   -10370363.692 3  -8080788.331 2
 91  7 27  6 18 15.0020000  0  5 12 21 23 11 15
  24869460.547     3237106.361 2   2522422.636 1
  21425753.260     3461037.041 5   2696913.468 3
  24766996.882    12359793.873 2   9631006.028 1
  22320269.500     3123779.700 3   2434114.771 2
  23131426.049   -10409197.427 3  -8111048.339 2
 91  7 27  6 18 30.0020000  0  5 12 21 23 11 15
  24875859.018     3270715.001 3   2548611.160 1
  21430001.027     3483358.247 5   2714306.619 3
  24775758.008    12405820.150 2   9666870.681 1
  22326908.400     3158655.596 3   2461290.775 2
  23124046.945   -10447965.087 3  -8141256.873 2
 91  7 27  6 18 45.0020000  0  5 12 21 23 11 15
  24882281.745     3304466.790 3   2574911.267 1
  21434260.171     3505749.768 4   2731754.561 3
  24784521.542    12451865.092 2   9702749.871 1
  22333573.406     3193682.874 3   2488584.728 2
  23116685.850   -10486666.361 3  -8171413.678 2
 91  7 27  6 19  0.0020000  0  5 12 21 23 11 15
  24888735.080     3338361.060 3   2601322.372 1
  21438534.602     3528211.086 4   2749256.896 3
  24793287.170    12497928.087 2   9738643.078 1
  22340265.948     3228860.779 3   2515996.082 2
  23109328.943   -10525301.369 3  -8201518.837 2
 91  7 27  6 19 15.0020000  0  5 12 21 23 11 15
  24895211.205     3372398.320 3   2627844.909 1
  21442822.853     3550743.102 4   2766814.303 3
  24802050.704    12544009.864 2   9774550.983 1
  22346993.007     3264189.885 3   2543525.241 1
  23101988.230   -10563868.881 3  -8231571.416 2
 91  7 27  6 19 30.0020000  0  5 12 21 23 11 15
  24901714.587     3406578.109 3   2654478.497 1
  21447126.077     3573345.675 4   2784426.698 3
  24810828.932    12590110.241 2   9810473.339 1
  22353737.447     3299669.593 3   2571171.745 2
  23094669.992   -10602368.762 3  -8261571.287 1
 91  7 27  6 19 45.0020000  0  5 12 21 23 11 15
  24908242.294     3440900.292 3   2681223.053 1
  21451439.771     3596018.728 5   2802094.022 3
  24819608.032    12636229.323 2   9846410.266 1
  22360519.334     3335299.694 3   2598935.459 2
  23087349.068   -10640800.774 3  -8291518.257 1
 91  7 27  6 20  0.0020000  0  5 12 21 23 11 15
  24914799.947     3475366.526 3   2708079.843 1
  21455766.099     3618764.147 5   2819817.728 3
  24828380.884    12682368.728 2   9882363.081 1
  22367327.921     3371081.842 3   2626817.629 1
  23080054.807   -10679162.579 3  -8321410.543 2
 91  7 27  6 20 15.0020000  0  5 12 21 23 11 15
  24921386.985     3509973.641 3   2735046.436 1
  21460110.086     3641579.094 5   2837595.605 3
  24837163.300    12728525.923 2   9918329.656 1
  22374168.580     3407012.871 3   2654815.822 1
  23072760.267   -10717456.679 3  -8351250.047 1
 91  7 27  6 20 30.0020000  0  5 12 21 23 11 15
  24928002.816     3544721.621 3   2762122.773 1
  21464466.952     3664463.709 5   2855427.778 3
  24845949.903    12774700.904 2   9954310.187 1
  22381032.344     3443092.637 3   2682929.902 2
  23065493.298   -10755682.465 3  -8381036.354 1
 91  7 27  6 20 45.0020000  0  5 12 21 23 11 15
  24934644.997     3579611.283 3   2789309.515 1
  21468828.948     3687419.120 4   2873315.111 3
  24854745.511    12820894.694 2   9990305.291 1
  22387926.053     3479321.996 3   2711160.579 2
  23058234.706   -10793838.448 3  -8410768.237 2
 91  7 27  6 21  0.0020000  0  5 12 21 23 11 15
  24941309.689     3614642.124 3   2816606.280 1
  21473215.793     3710445.092 5   2891257.433 3
  24863542.026    12867107.133 2  10026315.007 1
  22394849.182     3515700.322 3   2739507.297 2
  23050985.746   -10831924.609 3  -8440445.722 1
 91  7 27  6 21 15.0020000  0  5 12 21 23 11 15
  24948003.174     3649812.753 3   2844011.931 1
  21477611.363     3733540.498 5   2909253.845 3
  24872333.132    12913337.079 2  10062338.324 1
  22401794.474     3552226.154 3   2767968.983 2
  23043748.442   -10869941.778 3  -8470069.447 2
 91  7 27  6 21 30.0020000  0  5 12 21 23 11 15
  24954721.822     3685123.122 3   2871526.472 1
  21482015.903     3756705.520 5   2927304.519 3
  24881136.557    12959584.488 2  10098375.237 1
  22408781.436     3588899.356 3   2796545.475 2
  23036527.054   -10907889.519 3  -8499639.079 2
 91  7 27  6 21 45.0020000  0  5 12 21 23 11 15
  24961464.132     3720573.877 3   2899150.444 1
  21486439.044     3779941.028 5   2945410.116 3
  24889941.169    13005850.322 2  10134426.512 1
  22415788.781     3625720.433 3   2825237.220 2
  23029318.543   -10945766.607 3  -8529153.667 2
 91  7 27  6 22  0.0020000  0  5 12 21 23 11 15
  24968234.049     3756165.178 3   2926883.921 1
  21490875.692     3803247.484 5   2963570.989 3
  24898740.372    13052135.177 2  10170492.661 1
  22422824.604     3662689.645 3   2854044.376 2
  23022123.504   -10983572.279 3  -8558612.581 2
 91  7 27  6 22 15.0020000  0  5 12 21 23 11 15
  24975037.854     3791894.733 3   2954725.129 1
  21495322.811     3826622.735 5   2981785.481 3
  24907560.549    13098436.868 2  10206571.852 1
  22429883.810     3699804.594 3   2882965.096 2
  23014944.694   -11021308.096 3  -8588017.068 2
 91  7 27  6 22 30.0020000  0  5 12 21 23 11 15
  24981868.323     3827764.279 3   2982675.403 1
  21499783.400     3850068.822 5   3000055.174 3
  24916363.975    13144757.366 2  10242665.745 1
  22436974.811     3737067.062 3   2912000.777 2
  23007781.449   -11058971.582 3  -8617365.183 2
 91  7 27  6 22 45.0020000  0  5 12 21 23 11 15
  24988720.081     3863773.385 3   3010734.414 1
  21504256.624     3873585.465 4   3018379.836 3
  24925194.343    13191096.588 2  10278774.190 1
  22444091.568     3774476.497 3   2941150.954 2
  23000624.801   -11096562.741 3  -8646656.972 2
 91  7 27  6 23  0.0020000  0  5 12 21 23 11 15
  24995603.599     3899920.853 3   3038901.242 1
  21508747.787     3897171.805 5   3036758.807 3
  24934011.554    13237453.684 2  10314896.605 1
  22451243.121     3812031.654 3   2970414.699 1
  22993480.438   -11134082.170 3  -8675892.846 2
 91  7 27  6 23 15.0020000  0  5 12 21 23 11 15
  25002497.028     3936206.951 3   3067176.095 1
  21513248.896     3920828.379 4   3055192.509 3
  24942847.612    13283828.961 2  10351033.132 1
  22458415.649     3849732.692 3   2999792.127 2
  22986359.178   -11171528.976 3  -8705072.141 2
 91  7 27  6 23 30.0020000  0  5 12 21 23 11 15
  25009434.222     3972632.133 3   3095559.332 1
  21517765.256     3944555.896 5   3073681.486 3
  24951661.228    13330223.056 2  10387184.359 1
  22465617.284     3887580.068 3   3029283.582 2
  22979245.702   -11208902.257 3  -8734194.119 1
 91  7 27  6 23 45.0020000  0  5 12 21 23 11 15
  25016386.110     4009194.259 3   3124049.292 1
  21522290.621     3968352.671 4   3092224.426 3
  24960493.726    13376634.181 2  10423348.876 1
  22472845.269     3925571.571 3   3058887.342 2
  22972149.326   -11246203.302 3  -8763259.823 2
 91  7 27  6 24  0.0020000  0  5 12 21 23 11 15
  25023370.385     4045895.091 3   3152647.328 1
  21526834.588     3992220.567 5   3110822.798 3
  24969335.193    13423064.521 2  10459528.313 1
  22480102.640     3963708.940 3   3088604.750 2
  22965063.421   -11283429.798 3  -8792267.446 2
 91  7 27  6 24 15.0020000  0  5 12 21 23 11 15
  25030384.012     4082732.282 2   3181351.593 1
  21531389.933     4016157.438 5   3129474.911 3
  24978171.878    13469511.747 2  10495720.895 1
  22487389.397     4001989.770 3   3118433.955 1
  22957993.710   -11320583.492 3  -8821218.338 2
 91  7 27  6 24 30.0020000  0  5 12 21 23 11 15
  25037421.649     4119706.074 2   3210162.345 1
  21535957.876     4040163.826 5   3148181.194 3
  24987015.439    13515976.482 2  10531927.164 1
  22494701.353     4040414.235 3   3148375.085 2
  22950936.597   -11357663.719 4  -8850111.975 2
 91  7 27  6 24 45.0020000  0  5 12 21 23 11 15
  25044476.982     4156816.914 2   3239079.848 1
  21540538.384     4064240.363 5   3166942.141 3
  24995856.033    13562459.334 2  10568147.567 1
  22502045.661     4078982.684 3   3178428.409 2
  22943897.773   -11394669.390 4  -8878947.513 2
 91  7 27  6 25  0.0020000  0  5 12 21 23 11 15
  25051575.451     4194063.991 2   3268103.521 1
  21545135.120     4088386.632 5   3185757.424 3
  25004708.005    13608959.817 2  10604381.686 1
  22509406.756     4117694.327 3   3208593.302 2
  22936869.139   -11431600.539 4  -8907724.988 2
 91  7 27  6 25 15.0020000  0  5 12 21 23 11 15
  25058678.144     4231447.990 2   3297233.891 1
  21549742.920     4112603.556 5   3204627.757 3
  25013566.574    13655478.811 2  10640630.242 1
  22516800.553     4156549.748 3   3238870.240 2
  22929856.699   -11468455.866 3  -8936443.391 1
 91  7 27  6 25 30.0020000  0  5 12 21 23 11 15
  25065819.506     4268968.485 2   3326470.605 1
  21554363.912     4136890.867 5   3223552.938 3
  25022417.324    13702016.137 2  10676893.083 1
  22524221.293     4195548.458 3   3269258.849 2
  22922852.636   -11505235.189 3  -8965102.560 2
 91  7 27  6 25 45.0020000  0  5 12 21 23 11 15
  25072981.843     4306625.767 2   3355813.949 1
  21558999.318     4161249.258 5   3242533.520 3
  25031272.612    13748572.461 2  10713170.714 1
  22531673.548     4234690.643 3   3299759.238 2
  22915874.084   -11541937.450 4  -8993701.685 2
 91  7 27  6 26  0.0020000  0  5 12 21 23 11 15
  25080179.848     4344419.080 2   3385263.281 1
  21563648.196     4185678.259 5   3261569.100 3
  25040144.651    13795147.303 2  10749462.752 1
  22539144.091     4273975.572 3   3330370.846 2
  22908899.407   -11578562.971 3  -9022241.003 2
 91  7 27  6 26 15.0020000  0  5 12 21 23 11 15
  25087400.050     4382347.245 2   3414817.687 1
  21568311.173     4210176.868 5   3280658.933 3
  25049003.533    13841739.387 2  10785768.263 1
  22546649.080     4313401.855 3   3361092.614 1
  22901942.703   -11615112.418 3  -9050721.042 2
 91  7 27  6 26 30.0020000  0  5 12 21 23 11 15
  25094640.041     4420410.923 2   3444477.675 1
  21572984.935     4234746.086 5   3299803.785 3
  25057873.200    13888349.828 2  10822088.032 1
  22554178.954     4352970.135 3   3391925.018 1
  22895005.823   -11651584.588 4  -9079140.884 2
 91  7 27  6 26 45.0020000  0  5 12 21 23 11 15
  25101915.106     4458609.835 2   3474243.041 1
  21577672.796     4259385.836 5   3319003.595 3
  25066746.740    13934978.636 2  10858422.159 1
  22561732.525     4392680.080 3   3422867.825 1
  22888079.098   -11687979.035 4  -9107500.149 2
 91  7 27  6 27  0.0020000  0  5 12 21 23 11 15
  25109186.577     4496943.201 2   3504113.199 1
  21582375.944     4284095.670 5   3338258.013 3
  25075631.100    13981625.331 2  10894770.245 1
  22569317.576     4432530.984 3   3453920.471 1
  22881171.290   -11724295.897 3  -9135798.957 2
 91  7 27  6 27 15.0020000  0  5 12 21 23 11 15
  25116533.573     4535411.445 2   3534088.443 1
  21587092.284     4308876.284 5   3357567.581 3
  25084506.769    14028290.645 2  10931132.821 1
  22576929.326     4472523.099 3   3485083.130 1
  22874270.671   -11760534.044 3  -9164036.433 2
 91  7 27  6 27 30.0020000  0  5 12 21 23 11 15
  25123863.223     4574014.096 2   3564168.419 1
  21591821.189     4333727.536 5   3376932.204 3
  25093389.000    14074974.498 2  10967509.836 1
  22584565.646     4512656.015 3   3516355.530 2
  22867392.842   -11796693.082 4  -9192212.264 2
 91  7 27  6 27 45.0020000  0  5 12 21 23 11 15
  25131243.513     4612750.463 2   3594352.527 1
  21596564.507     4358648.907 5   3396351.461 3
  25102279.362    14121676.162 2  11003900.738 1
  22592227.444     4552928.878 3   3547736.986 1
  22860529.392   -11832773.293 4  -9220326.681 2
 91  7 27  6 28  0.0020000  0  5 12 21 23 11 15
  25138624.676     4651578.953 2   3624608.561 1
  21601311.420     4383599.218 5   3415793.262 3
  25111158.312    14168354.495 2  11040273.396 1
  22599908.401     4593300.262 3   3579195.177 2
  22853672.539   -11868815.535 2  -9248411.482 1
 91  7 27  6 28 15.0020000  0  5 12 21 23 11 15
  25146036.167       34869.84812     27172.741 1
  21606073.340     4408618.695 5   3435288.953 3
  25120046.860    14215050.002 2  11076659.496 1
  22607617.873     4633810.003 4   3610761.170 1
  22846821.060   -11904779.391 3  -9276435.229 1
 91  7 27  6 28 30.0020000  0  5 12 21 23 11 15
  25153481.791       27120.89312     21134.399 1
  21610847.510     4433709.846 5   3454840.491 3
  25128938.688    14261764.908 2  11113060.642 1
  22615354.322     4674460.299 4   3642436.713 1
  22839993.906   -11940661.738 3  -9304395.421 1
 91  7 27  6 28 45.0020000  0  4 12 21 11 15
  25160947.553       35016.221 2     27286.608 1
  21615637.316     4458872.845 3   3474448.038 2
  22623118.028     4715250.919 3   3674221.598 2
  22833185.006   -11976462.253 4  -9332291.959 1
 91  7 27  6 29  0.0020000  0  5 12 21 23 11 15
  25168436.349       74378.618 2     57958.657 1
  21620437.277     4484106.884 4   3494110.942 2
  25146724.194      -21824.52012    -17008.852 1
  22630906.654     4756180.526 3   3706114.815 2
  22826386.017   -12012181.315 4  -9360124.982 2
 91  7 27  6 29 15.0030000  0  5 12 21 23 11 15
  25175964.149      113877.192 2     88736.795 1
  21625253.732     4509414.294 4   3513831.006 3
  25155628.328       24951.221 2     19439.724 1
  22638721.336     4797252.345 3   3738118.833 2
  22819603.801   -12047820.410 4  -9387895.666 2
 91  7 27  6 29 30.0030000  0  5 12 21 23 11 15
  25183492.522      153504.803 2    119615.420 1
  21630080.114     4534790.017 4   3533604.292 3
  25164525.566       71741.616 2     55899.791 1
  22646559.415     4838458.826 3   3770227.743 2
  22812839.015   -12083376.158 4  -9415601.430 2
 91  7 27  6 29 45.0030000  0  5 12 21 23 11 15
  25191062.601      193264.072 2    150596.580 1
  21634924.748     4560236.204 5   3553432.448 3
  25173437.497      -31168.75412    -24290.046 1
  22654424.473     4879802.973 2   3802443.952 1
  22806083.477   -12118849.773 4  -9443243.114 2
 91  7 27  6 30  0.0030000  0  5 12 21 23 11 15
  25198658.715      233179.250 2    181699.424 1
  21639784.703     4585777.390 5   3573334.680 2
  25182352.429       15682.498 2     12217.468 1
  22662329.386     4921308.865 3   3834786.181 1
  22799357.919   -12154216.512 3  -9470801.577 2
 91  7 27  6 30 15.0030000  0  5 12 21 23 11 15
  25206282.436      273246.174 2    212920.322 1
  21644662.004     4611409.624 5   3593307.879 3
  25191272.457       62572.458 2     48755.065 1
  22670253.495     4962971.967 3   3867250.920 2
  22792648.590   -12189480.025 4  -9498279.612 2
 91  7 27  6 30 30.0030000  0  5 12 21 23 11 15
  25213932.856      313442.312 2    244242.021 1
  21649552.532     4637110.725 4   3613334.701 3
  25200204.456      109479.162 2     85305.678 1
  22678210.306     5004770.049 3   3899820.858 2
  22785952.418   -12224662.016 4  -9525694.114 2
 91  7 27  6 30 45.0030000  0  5 12 21 23 11 15
  25221608.753      353769.631 2    275665.902 1
  21654458.033     4662882.942 4   3633416.954 3
  25209131.987      156404.525 2    121870.907 1
  22686185.963     5046704.839 3   3932497.291 1
  22779272.439   -12259760.047 4  -9553043.197 2
 91  7 27  6 31  0.0030000  0  5 12 21 23 11 15
  25229302.310      394184.289 2    307157.780 1
  21659365.942     4688682.668 4   3653520.644 3
  25218051.108      203305.201 2    158416.847 1
  22694186.853     5088732.457 3   3965246.064 1
  22772601.465   -12294817.224 4  -9580360.449 2
 91  7 27  6 31 15.0030000  0  5 12 21 23 11 15
  25237003.091      434728.227 2    338750.537 1
  21664290.916     4714552.147 4   3673678.673 3
  25226984.921      250223.454 2    194976.479 1
  22702211.684     5130894.891 3   3998099.910 1
  22765943.649   -12329790.990 4  -9607612.713 2
 91  7 27  6 31 30.0030000  0  5 12 21 23 11 15
  25244755.734      475402.892 2    370444.978 1
  21669225.524     4740493.029 4   3693892.340 3
  25235913.046      297160.845 2    231551.015 1
  22710259.620     5173193.331 3   4031059.702 1
  22759306.843   -12364679.470 4  -9634798.502 2
 91  7 27  6 31 45.0030000  0  5 12 21 23 11 15
  25252508.656      516206.568 2    402240.069 1
  21674173.882     4766503.966 4   3714160.602 3
  25244847.173      344116.034 2    268139.475 1
  22718330.032     5215626.060 3   4064124.161 1
  22752684.450   -12399483.572 4  -9661918.557 2
